M I D A S
Marine Information and Data Acquisition System
Tripno 2035 of the Zeeleeuw from 2011-01-20 09:15:52 to 2011-01-20 16:41:53
Back to CruiseResearch ActivitiesStationsMapUnderway DataData graphs

EquipmentUnitsComment
TimeDGPSUTC
LatitudeDGPSDM.mWGS84
LongitudeDGPSDM.mWGS84
TemperatureSBE03/SBE38deg celciusITS90
ConductivitySBE21S/mITS90
SalinitySBE21 Practical Salinity Units
ChlorophylAChelsea fluorimeterg/lCalibrated in Aceton
Missing or incorrect values are displayed as -999
Sea surface data collected by the RV Zeeleeuw from 2011-01-20 09:16:14 to 2011-01-20 16:46:21
                                                                                    Next 1000 lines
Time Latitude Longitude Temperature Conductivity Salinity ChlorophylA
2011-01-20 09:16:24 51°13.661 2°55.957 15.1409 0.018668 0.099819 -0.373735
2011-01-20 09:16:30 51°13.662 2°55.953 15.2177 0.018772 0.100363 -0.373735
2011-01-20 09:16:34 51°13.663 2°55.95 15.2663 0.018772 0.100366 -0.373735
2011-01-20 09:16:40 51°13.664 2°55.945 15.2444 0.018668 0.099827 -0.408559
2011-01-20 09:16:46 51°13.666 2°55.939 15.2677 0.018772 0.10037 -0.373735
2011-01-20 09:16:52 51°13.667 2°55.932 15.2925 0.018668 0.09983 -0.373735
2011-01-20 09:16:58 51°13.669 2°55.924 15.288 0.018668 0.09983 -0.373735
2011-01-20 09:17:02 51°13.67 2°55.918 15.282 0.018772 0.100374 -0.373735
2011-01-20 09:17:08 51°13.672 2°55.909 15.2662 0.018668 0.099834 -0.373735
2011-01-20 09:17:14 51°13.674 2°55.9 15.3284 0.018668 0.099837 -0.408559
2011-01-20 09:17:18 51°13.675 2°55.893 15.3085 0.018772 0.100379 -0.408559
2011-01-20 09:17:24 51°13.677 2°55.883 15.3067 0.018772 0.100379 -0.408559
2011-01-20 09:17:28 51°13.679 2°55.875 15.3342 0.018772 0.100382 -0.373735
2011-01-20 09:17:34 51°13.68 2°55.865 15.3541 0.018668 0.099842 -0.373735
2011-01-20 09:17:38 51°13.682 2°55.858 15.3362 0.018668 0.099845 -0.408559
2011-01-20 09:17:44 51°13.683 2°55.847 15.3315 0.018668 0.099846 -0.408559
2011-01-20 09:17:48 51°13.684 2°55.841 15.3282 0.018668 0.099848 -0.408559
2011-01-20 09:17:54 51°13.686 2°55.831 15.3238 0.018668 0.099848 -0.408559
2011-01-20 09:17:58 51°13.687 2°55.825 15.3247 0.018668 0.099849 -0.408559
2011-01-20 09:18:04 51°13.688 2°55.816 15.3229 0.018668 0.099852 -0.408559
2011-01-20 09:18:08 51°13.689 2°55.809 15.3212 0.018668 0.099853 -0.373735
2011-01-20 09:18:14 51°13.69 2°55.8 15.3168 0.018668 0.099855 -0.373735
2011-01-20 09:18:18 51°13.69 2°55.794 15.3113 0.018668 0.099856 -0.373735
2011-01-20 09:18:24 51°13.691 2°55.786 15.3095 0.018668 0.099859 -0.373735
2011-01-20 09:18:29 51°13.691 2°55.779 15.313 0.018668 0.099859 -0.373735
2011-01-20 09:18:34 51°13.691 2°55.772 15.3147 0.018668 0.099862 -0.408559
2011-01-20 09:18:38 51°13.691 2°55.766 15.3226 0.018772 0.100404 -0.373735
2011-01-20 09:18:44 51°13.691 2°55.758 15.3204 0.018668 0.099864 -0.408559
2011-01-20 09:18:49 51°13.691 2°55.752 15.3456 0.018668 0.099866 -0.373735
2011-01-20 09:18:54 51°13.691 2°55.746 15.3519 0.018668 0.099866 -0.373735
2011-01-20 09:18:58 51°13.691 2°55.743 15.3563 0.018772 0.100411 -0.373735
2011-01-20 09:19:04 51°13.691 2°55.74 15.3492 0.018668 0.099871 -0.373735
2011-01-20 09:19:08 51°13.691 2°55.738 15.3163 0.018668 0.099871 -0.373735
2011-01-20 09:19:14 51°13.691 2°55.737 15.3178 0.018668 0.099871 -0.408559
2011-01-20 09:19:18 51°13.691 2°55.737 15.2842 0.018668 0.099875 -0.373735
2011-01-20 09:19:24 51°13.691 2°55.736 15.3269 0.018668 0.099875 -0.373735
2011-01-20 09:19:29 51°13.692 2°55.736 15.3081 0.018668 0.099875 -0.373735
2011-01-20 09:19:34 51°13.692 2°55.737 15.3301 0.018668 0.099878 -0.373735
2011-01-20 09:19:38 51°13.693 2°55.737 15.3263 0.018668 0.099881 -0.408559
2011-01-20 09:19:44 51°13.694 2°55.737 15.3314 0.018668 0.099882 -0.408559
2011-01-20 09:19:49 51°13.694 2°55.738 15.3322 0.018668 0.099884 -0.373735
2011-01-20 09:19:54 51°13.695 2°55.739 15.3345 0.018668 0.099884 -0.373735
2011-01-20 09:19:59 51°13.696 2°55.739 15.3321 0.018668 0.099886 -0.373735
2011-01-20 09:20:04 51°13.698 2°55.74 15.3326 0.018668 0.099889 -0.373735
2011-01-20 09:20:08 51°13.699 2°55.74 15.3072 0.018668 0.099892 -0.408559
2011-01-20 09:20:14 51°13.7 2°55.741 15.2155 0.018668 0.099893 -0.373735
2011-01-20 09:20:18 51°13.701 2°55.74 15.1847 0.018668 0.099896 -0.373735
2011-01-20 09:20:24 51°13.7 2°55.739 15.2473 0.018668 0.099899 -0.408559
2011-01-20 09:20:29 51°13.699 2°55.737 15.2542 0.018668 0.099899 -0.408559
2011-01-20 09:20:34 51°13.698 2°55.735 15.3283 0.018668 0.0999 -0.373735
2011-01-20 09:20:38 51°13.697 2°55.733 15.2794 0.018668 0.099904 -0.373735
2011-01-20 09:20:44 51°13.694 2°55.731 15.3473 0.018668 0.099907 -0.373735
2011-01-20 09:20:49 51°13.692 2°55.728 15.3463 0.018668 0.09991 -0.373735
2011-01-20 09:20:54 51°13.69 2°55.727 15.3603 0.018668 0.099911 -0.408559
2011-01-20 09:20:58 51°13.689 2°55.725 15.3551 0.018668 0.099911 -0.408559
2011-01-20 09:21:03 51°13.688 2°55.725 15.3784 0.018668 0.099914 -0.373735
2011-01-20 09:21:09 51°13.689 2°55.723 15.3785 0.018668 0.099915 -0.373735
2011-01-20 09:21:14 51°13.69 2°55.723 15.4004 0.018668 0.099917 -0.373735
2011-01-20 09:21:18 51°13.691 2°55.722 15.3943 0.018668 0.099919 -0.373735
2011-01-20 09:21:23 51°13.693 2°55.721 15.4073 0.018668 0.099919 -0.373735
2011-01-20 09:21:28 51°13.696 2°55.719 15.4053 0.018668 0.099921 -0.408559
2011-01-20 09:21:34 51°13.701 2°55.716 15.3868 0.018668 0.099924 -0.373735
2011-01-20 09:21:38 51°13.705 2°55.713 15.3813 0.018668 0.099928 -0.373735
2011-01-20 09:21:43 51°13.711 2°55.709 15.3814 0.018668 0.099929 -0.373735
2011-01-20 09:21:48 51°13.717 2°55.704 15.2992 0.018668 0.099933 -0.373735
2011-01-20 09:21:54 51°13.726 2°55.698 15.2856 0.018668 0.099936 -0.408559
2011-01-20 09:21:58 51°13.733 2°55.693 15.2543 0.018668 0.099936 -0.408559
2011-01-20 09:22:03 51°13.741 2°55.687 15.2147 0.018668 0.099939 -0.373735
2011-01-20 09:22:08 51°13.75 2°55.681 15.1853 0.018668 0.09994 -0.373735
2011-01-20 09:22:13 51°13.76 2°55.674 15.1875 0.018668 0.099944 -0.373735
2011-01-20 09:22:18 51°13.771 2°55.667 15.1698 0.018668 0.099946 -0.373735
2011-01-20 09:22:22 51°13.779 2°55.662 15.1873 0.018668 0.099948 -0.373735
2011-01-20 09:22:27 51°13.79 2°55.655 15.1851 0.018668 0.099948 -0.373735
2011-01-20 09:22:31 51°13.799 2°55.649 15.1127 0.018668 0.09995 -0.373735
2011-01-20 09:22:36 51°13.81 2°55.641 15.0663 0.018668 0.099955 -0.338911
2011-01-20 09:22:42 51°13.824 2°55.631 15.129 0.018668 0.099958 -0.373735
2011-01-20 09:22:46 51°13.833 2°55.625 15.1052 0.018668 0.099959 -0.373735
2011-01-20 09:22:50 51°13.842 2°55.618 15.1288 0.018668 0.099959 -0.373735
2011-01-20 09:22:55 51°13.854 2°55.61 15.1309 0.018668 0.099962 -0.373735
2011-01-20 09:23:00 51°13.865 2°55.602 15.1441 0.018668 0.099965 -0.373735
2011-01-20 09:23:05 51°13.877 2°55.594 15.1693 0.018668 0.099966 -0.408559
2011-01-20 09:23:10 51°13.889 2°55.585 15.1702 0.018668 0.099968 -0.408559
2011-01-20 09:23:16 51°13.904 2°55.576 15.1703 0.018668 0.099971 -0.373735
2011-01-20 09:23:21 51°13.916 2°55.567 15.1674 0.018668 0.099971 -0.373735
2011-01-20 09:23:27 51°13.93 2°55.557 15.218 0.018668 0.099975 -0.373735
2011-01-20 09:23:33 51°13.945 2°55.547 15.1744 0.018668 0.099976 -0.338911
2011-01-20 09:23:38 51°13.957 2°55.539 15.1828 0.018668 0.099979 -0.338911
2011-01-20 09:23:43 51°13.969 2°55.53 15.136 0.018668 0.099982 -0.338911
2011-01-20 09:23:48 51°13.981 2°55.521 15.1987 0.018668 0.099984 -0.373735
2011-01-20 09:23:54 51°13.996 2°55.51 15.201 0.018668 0.099987 -0.373735
2011-01-20 09:23:58 51°14.006 2°55.503 15.2027 0.018668 0.099987 -0.373735
2011-01-20 09:24:03 51°14.018 2°55.495 15.2086 0.018668 0.09999 -0.373735
2011-01-20 09:24:08 51°14.03 2°55.486 15.228 0.018668 0.099991 -0.408559
2011-01-20 09:24:14 51°14.045 2°55.476 15.2434 0.018668 0.099994 -0.373735
2011-01-20 09:24:18 51°14.054 2°55.469 15.2036 0.018668 0.099995 -0.373735
2011-01-20 09:24:24 51°14.069 2°55.458 15.2642 0.018668 0.099998 -0.408559
2011-01-20 09:24:29 51°14.081 2°55.449 15.2326 0.018668 0.099998 -0.408559
2011-01-20 09:24:34 51°14.093 2°55.44 15.2053 0.018668 0.100001 -0.373735
2011-01-20 09:24:38 51°14.103 2°55.433 15.2293 0.018668 0.100004 -0.373735
2011-01-20 09:24:44 51°14.118 2°55.422 15.2818 0.018668 0.100005 -0.373735
2011-01-20 09:24:48 51°14.128 2°55.414 15.1927 0.018668 0.100008 -0.373735
2011-01-20 09:24:53 51°14.14 2°55.404 15.2554 0.018668 0.100008 -0.373735
2011-01-20 09:24:58 51°14.152 2°55.395 15.2596 0.018668 0.100009 -0.373735
2011-01-20 09:25:02 51°14.161 2°55.386 15.1997 0.018668 0.100013 -0.373735
2011-01-20 09:25:07 51°14.173 2°55.377 15.2207 0.018668 0.100015 -0.373735
2011-01-20 09:25:13 51°14.188 2°55.364 15.2177 0.018668 0.100016 -0.373735
2011-01-20 09:25:18 51°14.199 2°55.353 15.2749 0.018668 0.100019 -0.338911
2011-01-20 09:25:23 51°14.211 2°55.342 15.1374 0.018668 0.100019 -0.338911
2011-01-20 09:25:29 51°14.226 2°55.329 15.2131 0.018668 0.10002 -0.373735
2011-01-20 09:25:34 51°14.237 2°55.318 15.2582 0.018668 0.100024 -0.373735
2011-01-20 09:25:38 51°14.247 2°55.308 15.1542 0.018668 0.100026 -0.373735
2011-01-20 09:25:43 51°14.259 2°55.297 15.1528 0.018668 0.100029 -0.373735
2011-01-20 09:25:48 51°14.27 2°55.285 15.1909 0.018668 0.100029 -0.338911
2011-01-20 09:25:53 51°14.282 2°55.273 15.134 0.018668 0.100033 -0.373735
2011-01-20 09:25:58 51°14.294 2°55.261 15.1125 0.018668 0.100033 -0.373735
2011-01-20 09:26:02 51°14.303 2°55.252 15.154 0.018668 0.100034 -0.373735
2011-01-20 09:26:07 51°14.315 2°55.24 15.1042 0.018668 0.100035 -0.373735
2011-01-20 09:26:12 51°14.327 2°55.228 15.1724 0.018668 0.100037 -0.373735
2011-01-20 09:26:17 51°14.34 2°55.216 15.1835 0.018668 0.10004 -0.373735
2011-01-20 09:26:22 51°14.352 2°55.203 15.1221 0.018668 0.10004 -0.373735
2011-01-20 09:26:26 51°14.362 2°55.193 15.0398 0.018668 0.100042 -0.373735
2011-01-20 09:26:32 51°14.377 2°55.178 15.1318 0.018668 0.100044 -0.373735
2011-01-20 09:26:37 51°14.39 2°55.165 15.0798 0.018668 0.100048 -0.373735
2011-01-20 09:26:42 51°14.402 2°55.151 15.1034 0.018668 0.100048 -0.408559
2011-01-20 09:26:46 51°14.412 2°55.139 15.064 0.018668 0.100049 -0.373735
2011-01-20 09:26:51 51°14.424 2°55.125 15.0603 0.018668 0.100049 -0.373735
2011-01-20 09:26:56 51°14.437 2°55.111 15.0956 0.018668 0.100053 -0.408559
2011-01-20 09:27:01 51°14.45 2°55.098 15.0975 0.018668 0.100056 -0.373735
2011-01-20 09:27:06 51°14.464 2°55.085 15.124 0.018668 0.100059 -0.373735
2011-01-20 09:27:11 51°14.478 2°55.072 14.9649 0.018668 0.10006 -0.373735
2011-01-20 09:27:16 51°14.492 2°55.058 15.0877 0.018668 0.100063 -0.373735
2011-01-20 09:27:22 51°14.508 2°55.041 14.9866 0.018668 0.100065 -0.373735
2011-01-20 09:27:26 51°14.519 2°55.028 15.052 0.018668 0.100065 -0.373735
2011-01-20 09:27:30 51°14.53 2°55.016 14.9413 0.018668 0.100067 -0.373735
2011-01-20 09:27:35 51°14.544 2°55 14.9696 0.018668 0.10007 -0.373735
2011-01-20 09:27:40 51°14.558 2°54.984 15.023 0.018668 0.100073 -0.373735
2011-01-20 09:27:45 51°14.572 2°54.968 15.011 0.018668 0.100077 -0.373735
2011-01-20 09:27:50 51°14.586 2°54.952 14.9553 0.018668 0.100078 -0.338911
2011-01-20 09:27:55 51°14.601 2°54.936 14.9291 0.018668 0.100078 -0.338911
2011-01-20 09:28:00 51°14.616 2°54.921 14.9982 0.018668 0.100081 -0.373735
2011-01-20 09:28:05 51°14.631 2°54.906 14.9523 0.018668 0.100084 -0.373735
2011-01-20 09:28:10 51°14.646 2°54.893 14.9853 0.018668 0.100087 -0.338911
2011-01-20 09:28:15 51°14.661 2°54.881 14.9978 0.018668 0.100088 -0.373735
2011-01-20 09:28:20 51°14.677 2°54.869 14.9975 0.018668 0.100088 -0.373735
2011-01-20 09:28:25 51°14.693 2°54.857 14.9306 0.018668 0.100089 -0.373735
2011-01-20 09:28:30 51°14.708 2°54.844 14.9387 0.018668 0.100091 -0.338911
2011-01-20 09:28:34 51°14.721 2°54.835 14.9935 0.018668 0.100102 -0.373735
2011-01-20 09:28:40 51°14.74 2°54.821 14.9872 0.018668 0.100107 -0.373735
2011-01-20 09:28:45 51°14.756 2°54.81 14.9644 0.018668 0.100109 -0.373735
2011-01-20 09:28:50 51°14.772 2°54.799 14.9246 0.018668 0.100109 -0.373735
2011-01-20 09:28:55 51°14.788 2°54.789 14.9391 0.018668 0.10011 -0.338911
2011-01-20 09:29:00 51°14.804 2°54.78 14.9809 0.018668 0.100112 -0.373735
2011-01-20 09:29:05 51°14.82 2°54.77 14.901 0.018668 0.100113 -0.373735
2011-01-20 09:29:10 51°14.836 2°54.762 14.958 0.018668 0.100114 -0.338911
2011-01-20 09:29:14 51°14.849 2°54.756 14.9691 0.018668 0.100119 -0.373735
2011-01-20 09:29:20 51°14.869 2°54.75 14.9652 0.018668 0.100119 -0.373735
2011-01-20 09:29:25 51°14.886 2°54.746 14.9331 0.018668 0.100119 -0.373735
2011-01-20 09:29:30 51°14.902 2°54.743 14.9697 0.018668 0.100123 -0.373735
2011-01-20 09:29:35 51°14.919 2°54.741 14.9508 0.018668 0.100124 -0.338911
2011-01-20 09:29:40 51°14.936 2°54.739 14.9711 0.018668 0.100127 -0.373735
2011-01-20 09:29:45 51°14.952 2°54.738 15.005 0.018668 0.100128 -0.373735
2011-01-20 09:29:50 51°14.969 2°54.735 14.9874 0.018668 0.100128 -0.373735
2011-01-20 09:29:54 51°14.982 2°54.732 14.9756 0.018668 0.100127 -0.373735
2011-01-20 09:30:00 51°15.002 2°54.727 15.0137 0.018668 0.100124 -0.373735
2011-01-20 09:30:05 51°15.018 2°54.72 14.9508 0.018668 0.100127 -0.338911
2011-01-20 09:30:10 51°15.034 2°54.713 14.9791 0.018668 0.100137 -0.373735
2011-01-20 09:30:14 51°15.047 2°54.705 14.9721 0.018668 0.100141 -0.373735
2011-01-20 09:30:20 51°15.066 2°54.694 14.9716 0.018668 0.100141 -0.373735
2011-01-20 09:30:25 51°15.081 2°54.684 14.9751 0.018668 0.100145 -0.373735
2011-01-20 09:30:30 51°15.097 2°54.673 14.9631 0.018668 0.100149 -0.373735
2011-01-20 09:30:35 51°15.112 2°54.661 14.9473 0.018668 0.10015 -0.373735
2011-01-20 09:30:40 51°15.127 2°54.649 14.9738 0.018668 0.100155 -0.338911
2011-01-20 09:30:45 51°15.142 2°54.637 14.9518 0.018668 0.100157 -0.373735
2011-01-20 09:30:50 51°15.157 2°54.625 14.9546 0.018668 0.100162 -0.338911
2011-01-20 09:30:55 51°15.173 2°54.612 14.9689 0.018668 0.100162 -0.338911
2011-01-20 09:31:00 51°15.188 2°54.6 14.9126 0.018668 0.100162 -0.338911
2011-01-20 09:31:05 51°15.203 2°54.588 14.9454 0.018668 0.100162 -0.373735
2011-01-20 09:31:10 51°15.218 2°54.577 14.9706 0.018668 0.100166 -0.338911
2011-01-20 09:31:15 51°15.234 2°54.567 14.9577 0.018668 0.100169 -0.338911
2011-01-20 09:31:20 51°15.25 2°54.556 14.9735 0.018668 0.100171 -0.373735
2011-01-20 09:31:25 51°15.265 2°54.544 14.9781 0.018668 0.100171 -0.373735
2011-01-20 09:31:30 51°15.281 2°54.532 14.9904 0.018668 0.100178 -0.338911
2011-01-20 09:31:34 51°15.293 2°54.522 14.9846 0.018668 0.100175 -0.338911
2011-01-20 09:31:40 51°15.311 2°54.505 14.9713 0.018668 0.10018 -0.373735
2011-01-20 09:31:45 51°15.326 2°54.49 14.9594 0.018668 0.100182 -0.338911
2011-01-20 09:31:50 51°15.34 2°54.474 14.9557 0.018668 0.100182 -0.338911
2011-01-20 09:31:55 51°15.354 2°54.457 14.9743 0.018668 0.100189 -0.338911
2011-01-20 09:32:00 51°15.368 2°54.44 14.9426 0.018668 0.100194 -0.373735
2011-01-20 09:32:05 51°15.382 2°54.423 14.9518 0.018668 0.100196 -0.338911
2011-01-20 09:32:10 51°15.396 2°54.406 14.9326 0.018668 0.100198 -0.373735
2011-01-20 09:32:14 51°15.407 2°54.393 14.9688 0.018668 0.100199 -0.338911
2011-01-20 09:32:20 51°15.425 2°54.374 14.9461 0.018668 0.100199 -0.338911
2011-01-20 09:32:25 51°15.439 2°54.358 14.9666 0.018668 0.100198 -0.373735
2011-01-20 09:32:30 51°15.454 2°54.343 14.956 0.018668 0.100195 -0.373735
2011-01-20 09:32:35 51°15.468 2°54.328 14.9611 0.018668 0.100198 -0.373735
2011-01-20 09:32:40 51°15.483 2°54.312 14.9705 0.018668 0.1002 -0.373735
2011-01-20 09:32:45 51°15.497 2°54.296 14.9684 0.018668 0.100202 -0.373735
2011-01-20 09:32:50 51°15.511 2°54.281 14.9605 0.018668 0.100206 -0.338911
2011-01-20 09:32:55 51°15.526 2°54.265 14.9414 0.018668 0.100206 -0.338911
2011-01-20 09:33:00 51°15.54 2°54.249 14.934 0.018668 0.100207 -0.373735
2011-01-20 09:33:05 51°15.555 2°54.233 14.9648 0.018668 0.100209 -0.338911
2011-01-20 09:33:10 51°15.569 2°54.217 14.9824 0.018668 0.100212 -0.338911
2011-01-20 09:33:15 51°15.583 2°54.202 14.95 0.018668 0.100212 -0.338911
2011-01-20 09:33:20 51°15.597 2°54.186 14.962 0.018668 0.100214 -0.373735
2011-01-20 09:33:25 51°15.612 2°54.171 14.9683 0.018668 0.100214 -0.373735
2011-01-20 09:33:30 51°15.626 2°54.155 11.5003 0.018564 0.099672 -0.373735
2011-01-20 09:33:34 51°15.637 2°54.142 9.0303 0.018668 0.100217 -0.338911
2011-01-20 09:33:40 51°15.654 2°54.123 8.3354 0.018668 0.100456 -0.338911
2011-01-20 09:33:45 51°15.669 2°54.108 7.6735 0.018668 0.100522 -0.338911
2011-01-20 09:33:50 51°15.683 2°54.092 7.3809 0.018668 0.100522 -0.338911
2011-01-20 09:33:55 51°15.698 2°54.077 7.2243 4.113114 30.498919 -0.269263
2011-01-20 09:34:00 51°15.712 2°54.061 7.027 3.794448 28.670826 0.078977
2011-01-20 09:34:05 51°15.726 2°54.046 6.8947 4.071368 32.178441 0.078977
2011-01-20 09:34:10 51°15.74 2°54.03 6.8143 3.870435 32.16693 0.18345
2011-01-20 09:34:15 51°15.755 2°54.015 6.7715 3.733871 32.280211 -0.025495
2011-01-20 09:34:20 51°15.769 2°53.998 6.7433 3.602495 32.307729 -0.060319
2011-01-20 09:34:25 51°15.783 2°53.983 6.7517 3.602495 32.307729 -0.060319
2011-01-20 09:34:30 51°15.798 2°53.967 6.6798 3.608731 33.494518 -0.095143
2011-01-20 09:34:35 51°15.812 2°53.952 6.6886 3.53008 33.152502 0.113802
2011-01-20 09:34:40 51°15.827 2°53.936 6.5844 3.493712 33.215172 0.009329
2011-01-20 09:34:45 51°15.841 2°53.92 6.5348 3.453128 33.165545 -0.060319
2011-01-20 09:34:50 51°15.855 2°53.904 6.5335 3.42625 33.138902 -0.060319
2011-01-20 09:34:54 51°15.866 2°53.892 6.4869 3.42625 33.138902 -0.060319
2011-01-20 09:35:00 51°15.884 2°53.873 6.4793 3.396736 33.001767 -0.025495
2011-01-20 09:35:05 51°15.898 2°53.858 6.5087 3.393048 33.085156 -0.025495
2011-01-20 09:35:10 51°15.912 2°53.842 6.4442 3.356261 32.754567 -0.025495
2011-01-20 09:35:15 51°15.927 2°53.827 6.4573 3.360162 32.852291 -0.095143
2011-01-20 09:35:20 51°15.941 2°53.811 6.4394 3.360162 32.852291 -0.095143
2011-01-20 09:35:25 51°15.955 2°53.795 6.4522 3.348463 32.82606 -0.025495
2011-01-20 09:35:30 51°15.969 2°53.78 6.4083 3.346461 32.886025 -0.095143
2011-01-20 09:35:34 51°15.98 2°53.767 6.4333 3.34351 32.913143 -0.025495
2011-01-20 09:35:40 51°15.997 2°53.749 6.4606 3.339084 32.907114 -0.095143
2011-01-20 09:35:45 51°16.012 2°53.733 6.3769 3.338874 32.941512 -0.060319
2011-01-20 09:35:50 51°16.026 2°53.717 6.3721 3.338874 32.941512 -0.060319
2011-01-20 09:35:55 51°16.04 2°53.702 6.359 3.332655 32.917527 -0.060319
2011-01-20 09:36:00 51°16.054 2°53.685 6.3571 3.331496 32.920353 -0.095143
2011-01-20 09:36:05 51°16.068 2°53.668 6.3573 3.332656 32.953523 -0.095143
2011-01-20 09:36:10 51°16.082 2°53.652 6.3478 3.32707 32.912712 -0.095143
2011-01-20 09:36:14 51°16.092 2°53.638 6.3438 3.321378 32.868256 0.044153
2011-01-20 09:36:20 51°16.109 2°53.618 6.3208 3.322959 32.901165 -0.060319
2011-01-20 09:36:25 51°16.122 2°53.602 6.3238 3.322959 32.901165 -0.060319
2011-01-20 09:36:30 51°16.136 2°53.585 6.3332 3.317374 32.870111 -0.095143
2011-01-20 09:36:35 51°16.15 2°53.568 6.3264 3.319903 32.910212 -0.025495
2011-01-20 09:36:40 51°16.164 2°53.551 6.3247 3.318849 32.913396 -0.025495
2011-01-20 09:36:45 51°16.177 2°53.534 6.3113 3.319693 32.939926 -0.025495
2011-01-20 09:36:50 51°16.191 2°53.517 6.3122 3.316636 32.917794 0.009329
2011-01-20 09:36:55 51°16.204 2°53.5 6.2979 3.316636 32.917794 0.009329
2011-01-20 09:37:00 51°16.218 2°53.483 6.2957 3.315899 32.922826 -0.060319
2011-01-20 09:37:05 51°16.232 2°53.467 6.308 3.307994 32.853034 -0.095143
2011-01-20 09:37:10 51°16.246 2°53.45 6.287 3.314213 32.926466 -0.060319
2011-01-20 09:37:15 51°16.26 2°53.434 6.2918 3.313686 32.915723 -0.025495
2011-01-20 09:37:20 51°16.274 2°53.418 6.2767 3.313686 32.915723 -0.025495
2011-01-20 09:37:25 51°16.288 2°53.401 6.2781 3.309259 32.87929 -0.025495
2011-01-20 09:37:30 51°16.302 2°53.384 6.2643 3.3042 32.838336 -0.095143
2011-01-20 09:37:34 51°16.313 2°53.371 6.2541 3.305886 32.860209 -0.095143
2011-01-20 09:37:40 51°16.329 2°53.351 6.2563 3.3042 32.856419 -0.025495
2011-01-20 09:37:45 51°16.343 2°53.335 6.2527 3.305781 32.877967 -0.060319
2011-01-20 09:37:50 51°16.357 2°53.319 6.262 3.305781 32.877967 -0.060319
2011-01-20 09:37:55 51°16.371 2°53.302 6.2601 3.304727 32.874573 -0.025495
2011-01-20 09:38:00 51°16.385 2°53.286 6.2337 3.298931 32.818034 -0.060319
2011-01-20 09:38:05 51°16.398 2°53.269 6.2386 3.296296 32.798008 -0.025495
2011-01-20 09:38:10 51°16.412 2°53.253 6.2605 3.296718 32.813347 -0.095143
2011-01-20 09:38:15 51°16.426 2°53.237 6.2061 3.291764 32.768541 -0.095143
2011-01-20 09:38:20 51°16.44 2°53.222 6.2241 3.29208 32.777783 -0.129967
2011-01-20 09:38:25 51°16.454 2°53.206 6.2156 3.29208 32.777783 -0.129967
2011-01-20 09:38:30 51°16.468 2°53.191 6.204 3.295242 32.813512 -0.060319
2011-01-20 09:38:35 51°16.482 2°53.176 6.1823 3.29324 32.794693 -0.095143
2011-01-20 09:38:40 51°16.496 2°53.161 6.1696 3.290183 32.767524 -0.060319
2011-01-20 09:38:45 51°16.51 2°53.146 6.1632 3.286495 32.737473 -0.025495
2011-01-20 09:38:50 51°16.524 2°53.13 6.1642 3.278696 32.655458 -0.095143
2011-01-20 09:38:54 51°16.535 2°53.118 6.1378 3.278696 32.655458 -0.095143
2011-01-20 09:39:00 51°16.552 2°53.1 6.1314 3.276166 32.638181 -0.025495
2011-01-20 09:39:05 51°16.566 2°53.084 6.1276 3.275534 32.637753 -0.060319
2011-01-20 09:39:10 51°16.579 2°53.069 6.1201 3.272267 32.608221 -0.095143
2011-01-20 09:39:15 51°16.593 2°53.053 6.096 3.261833 32.508516 -0.164791
2011-01-20 09:39:20 51°16.607 2°53.039 6.0957 3.261833 32.508516 -0.164791
2011-01-20 09:39:25 51°16.621 2°53.024 6.0904 3.260253 32.507393 -0.060319
2011-01-20 09:39:30 51°16.635 2°53.01 6.0808 3.255616 32.469218 -0.095143
2011-01-20 09:39:34 51°16.646 2°52.998 6.088 3.25256 32.451766 -0.060319
2011-01-20 09:39:40 51°16.663 2°52.981 6.0898 3.248766 32.423693 -0.025495
2011-01-20 09:39:45 51°16.677 2°52.967 6.0771 3.238333 32.316474 -0.060319
2011-01-20 09:39:50 51°16.691 2°52.953 6.0404 3.238333 32.316474 -0.060319
2011-01-20 09:39:55 51°16.705 2°52.94 6.054 3.233696 32.277404 -0.129967
2011-01-20 09:40:00 51°16.719 2°52.926 6.0337 3.233591 32.286812 -0.060319
2011-01-20 09:40:05 51°16.734 2°52.912 6.0448 3.220418 32.153293 -0.060319
2011-01-20 09:40:10 51°16.748 2°52.898 6.0532 3.225582 32.217718 -0.095143
2011-01-20 09:40:14 51°16.759 2°52.887 6.019 3.224001 32.205101 -0.025495
2011-01-20 09:40:20 51°16.776 2°52.87 5.9862 3.216097 32.1209 -0.025495
2011-01-20 09:40:25 51°16.79 2°52.855 5.9762 3.216097 32.1209 -0.025495
2011-01-20 09:40:30 51°16.804 2°52.841 5.9609 3.2142 32.112876 -0.095143
2011-01-20 09:40:35 51°16.818 2°52.827 5.9525 3.210723 32.092213 -0.060319
2011-01-20 09:40:40 51°16.832 2°52.813 5.9497 3.20714 32.060647 -0.060319
2011-01-20 09:40:45 51°16.846 2°52.799 5.9267 3.20145 31.998462 -0.060319
2011-01-20 09:40:50 51°16.86 2°52.785 5.9216 3.20145 31.998462 -0.060319
2011-01-20 09:40:54 51°16.872 2°52.775 5.9283 3.195654 31.950458 -0.060319
2011-01-20 09:41:00 51°16.889 2°52.758 5.8762 3.194495 31.946505 -0.025495
2011-01-20 09:41:05 51°16.903 2°52.745 5.8958 3.192388 31.940122 0.044153
2011-01-20 09:41:10 51°16.917 2°52.731 5.8582 3.186487 31.895729 0.044153
2011-01-20 09:41:15 51°16.932 2°52.718 5.8192 3.179321 31.830022 -0.025495
2011-01-20 09:41:20 51°16.946 2°52.705 5.8225 3.179321 31.830022 -0.025495
2011-01-20 09:41:25 51°16.961 2°52.692 5.8086 3.17184 31.761586 0.078977
2011-01-20 09:41:30 51°16.975 2°52.678 5.8195 3.167098 31.717063 0.113802
2011-01-20 09:41:34 51°16.986 2°52.668 5.7776 3.156772 31.615434 0.113802
2011-01-20 09:41:40 51°17.004 2°52.651 5.774 3.153611 31.599622 0.044153
2011-01-20 09:41:45 51°17.019 2°52.638 5.776 3.142969 31.497609 0.148626
2011-01-20 09:41:50 51°17.034 2°52.624 5.7762 3.13612 31.448006 0.044153
2011-01-20 09:41:55 51°17.05 2°52.611 5.7731 3.13612 31.448006 0.044153
2011-01-20 09:42:00 51°17.064 2°52.599 5.7482 3.133064 31.431669 0.078977
2011-01-20 09:42:05 51°17.079 2°52.586 5.7484 3.124003 31.344649 0.148626
2011-01-20 09:42:10 51°17.093 2°52.573 5.7321 3.12021 31.312898 0.113802
2011-01-20 09:42:15 51°17.108 2°52.561 5.7293 3.113467 31.249174 -0.025495
2011-01-20 09:42:20 51°17.122 2°52.548 5.7368 3.113467 31.249174 -0.025495
2011-01-20 09:42:25 51°17.136 2°52.535 5.733 3.114099 31.270516 0.113802
2011-01-20 09:42:30 51°17.151 2°52.522 5.7293 3.110517 31.243454 0.078977
2011-01-20 09:42:35 51°17.165 2°52.509 5.7306 3.10567 31.199146 0.009329
2011-01-20 09:42:40 51°17.179 2°52.497 5.7287 3.100402 31.146965 0.044153
2011-01-20 09:42:45 51°17.194 2°52.484 5.7213 3.103774 31.19715 0.113802
2011-01-20 09:42:50 51°17.208 2°52.471 5.711 3.103774 31.19715 0.113802
2011-01-20 09:42:54 51°17.22 2°52.461 5.7253 3.096399 31.119931 0.113802
2011-01-20 09:43:00 51°17.237 2°52.446 5.7206 3.098506 31.152092 0.078977
2011-01-20 09:43:05 51°17.251 2°52.433 5.7077 3.092501 31.089288 -0.025495
2011-01-20 09:43:10 51°17.266 2°52.421 5.7008 3.094502 31.115514 0.113802
2011-01-20 09:43:15 51°17.28 2°52.408 5.7128 3.094713 31.121827 0.148626
2011-01-20 09:43:20 51°17.295 2°52.396 5.7163 3.094713 31.121827 0.148626
2011-01-20 09:43:25 51°17.31 2°52.383 5.6829 3.093344 31.111358 0.113802
2011-01-20 09:43:30 51°17.324 2°52.371 5.6853 3.091342 31.093061 0.078977
2011-01-20 09:43:35 51°17.339 2°52.358 5.6981 3.09092 31.092341 0.113802
2011-01-20 09:43:40 51°17.354 2°52.346 5.6895 3.087549 31.055631 -0.025495
2011-01-20 09:43:45 51°17.368 2°52.332 5.6956 3.091237 31.102209 0.113802
2011-01-20 09:43:50 51°17.383 2°52.32 5.6904 3.091237 31.102209 0.113802
2011-01-20 09:43:55 51°17.397 2°52.306 5.7017 3.086917 31.055735 0.113802
2011-01-20 09:44:00 51°17.412 2°52.294 5.6995 3.086285 31.050289 0.18345
2011-01-20 09:44:05 51°17.426 2°52.281 5.7017 3.091974 31.122336 0.009329
2011-01-20 09:44:10 51°17.441 2°52.268 5.7071 3.089024 31.095854 0.078977
2011-01-20 09:44:14 51°17.453 2°52.258 5.7248 3.088919 31.095476 -0.095143
2011-01-20 09:44:20 51°17.47 2°52.243 5.7218 3.088919 31.095476 -0.095143
2011-01-20 09:44:25 51°17.484 2°52.231 5.7141 3.091553 31.126391 -0.025495
2011-01-20 09:44:30 51°17.499 2°52.218 5.7203 3.090183 31.110346 0.044153
2011-01-20 09:44:35 51°17.514 2°52.206 5.7136 3.092501 31.136949 -0.025495
2011-01-20 09:44:40 51°17.529 2°52.193 5.7078 3.093976 31.153374 -0.025495
2011-01-20 09:44:45 51°17.543 2°52.18 5.7227 3.094819 31.158779 0.044153
2011-01-20 09:44:50 51°17.558 2°52.167 5.7383 3.094819 31.158779 0.044153
2011-01-20 09:44:54 51°17.57 2°52.157 5.7265 3.096294 31.172018 -0.060319
2011-01-20 09:45:00 51°17.588 2°52.141 5.7371 3.097558 31.182113 -0.060319
2011-01-20 09:45:05 51°17.602 2°52.127 5.7493 3.100298 31.211817 0.044153
2011-01-20 09:45:10 51°17.616 2°52.113 5.7538 3.101246 31.222376 0.044153
2011-01-20 09:45:15 51°17.631 2°52.099 5.7545 3.102405 31.234484 -0.060319
2011-01-20 09:45:20 51°17.645 2°52.085 5.7553 3.102405 31.233686 0.009329
2011-01-20 09:45:25 51°17.659 2°52.072 5.7595 3.102405 31.233686 0.009329
2011-01-20 09:45:30 51°17.673 2°52.058 5.7686 3.105566 31.264893 -0.060319
2011-01-20 09:45:34 51°17.685 2°52.047 5.7751 3.107041 31.279722 -0.025495
2011-01-20 09:45:40 51°17.702 2°52.031 5.7804 3.10978 31.305433 0.009329
2011-01-20 09:45:45 51°17.716 2°52.017 5.7848 3.112203 31.325221 -0.060319
2011-01-20 09:45:50 51°17.731 2°52.004 5.7898 3.112203 31.325221 -0.060319
2011-01-20 09:45:55 51°17.745 2°51.992 5.7949 3.114311 31.343884 -0.025495
2011-01-20 09:46:00 51°17.76 2°51.979 5.7979 3.115786 31.357907 -0.025495
2011-01-20 09:46:05 51°17.775 2°51.966 5.7966 3.119052 31.391071 0.078977
2011-01-20 09:46:10 51°17.789 2°51.954 5.8019 3.12137 31.409668 0.009329
2011-01-20 09:46:14 51°17.801 2°51.944 5.8024 3.124531 31.44085 0.044153
2011-01-20 09:46:20 51°17.818 2°51.927 5.8108 3.124531 31.44085 0.044153
2011-01-20 09:46:25 51°17.832 2°51.915 5.81 3.126743 31.458263 0.113802
2011-01-20 09:46:30 51°17.847 2°51.903 5.8163 3.128956 31.478078 0.044153
2011-01-20 09:46:35 51°17.862 2°51.89 5.8117 3.131274 31.497457 0.044153
2011-01-20 09:46:40 51°17.876 2°51.877 5.8247 3.133276 31.515723 0.009329
2011-01-20 09:46:45 51°17.89 2°51.865 5.8366 3.133592 31.516028 0.078977
2011-01-20 09:46:50 51°17.905 2°51.852 5.8355 3.133592 31.516028 0.078977
2011-01-20 09:46:55 51°17.92 2°51.84 5.8386 3.13591 31.538611 0.044153
2011-01-20 09:47:00 51°17.934 2°51.827 5.8439 3.137491 31.552984 0.078977
2011-01-20 09:47:05 51°17.949 2°51.816 5.8419 3.138755 31.565447 0.009329
2011-01-20 09:47:10 51°17.964 2°51.804 5.8527 3.140546 31.582968 0.113802
2011-01-20 09:47:15 51°17.979 2°51.792 5.8492 3.141916 31.593382 0.009329
2011-01-20 09:47:20 51°17.994 2°51.779 5.8484 3.141073 31.57998 0.078977
2011-01-20 09:47:25 51°18.008 2°51.767 5.8542 3.141073 31.57998 0.078977
2011-01-20 09:47:30 51°18.023 2°51.753 5.8491 3.14455 31.612228 0.009329
2011-01-20 09:47:34 51°18.035 2°51.742 5.8508 3.146658 31.630842 0.078977
2011-01-20 09:47:40 51°18.052 2°51.726 5.8524 3.148238 31.644397 0.044153
2011-01-20 09:47:45 51°18.067 2°51.714 5.8555 3.14887 31.646596 0.044153
2011-01-20 09:47:50 51°18.081 2°51.701 5.8636 3.15161 31.675457 0.009329
2011-01-20 09:47:55 51°18.096 2°51.688 5.8662 3.15161 31.675457 0.009329
2011-01-20 09:48:00 51°18.111 2°51.675 5.8671 3.153401 31.692157 0.113802
2011-01-20 09:48:05 51°18.125 2°51.663 5.8692 3.134224 31.47814 0.113802
2011-01-20 09:48:10 51°18.14 2°51.651 5.8754 3.154349 31.701093 0.078977
2011-01-20 09:48:15 51°18.155 2°51.639 5.8791 3.156351 31.722556 0.148626
2011-01-20 09:48:20 51°18.17 2°51.627 5.8816 3.156351 31.722556 0.148626
2011-01-20 09:48:25 51°18.185 2°51.614 5.8736 3.157932 31.738523 0.078977
2011-01-20 09:48:30 51°18.2 2°51.602 5.8804 3.158775 31.746285 0.113802
2011-01-20 09:48:35 51°18.215 2°51.589 5.8772 3.161093 31.768033 0.078977
2011-01-20 09:48:40 51°18.23 2°51.576 5.8745 3.162779 31.782745 0.113802
2011-01-20 09:48:45 51°18.244 2°51.563 5.8748 3.163095 31.783836 0.148626
2011-01-20 09:48:50 51°18.259 2°51.55 5.8846 3.163095 31.783836 0.148626
2011-01-20 09:48:55 51°18.274 2°51.536 5.8754 3.164149 31.791513 0.044153
2011-01-20 09:49:00 51°18.288 2°51.524 5.8891 3.163622 31.782421 0.113802
2011-01-20 09:49:05 51°18.302 2°51.51 5.8943 3.16594 31.806584 0.113802
2011-01-20 09:49:10 51°18.317 2°51.497 5.8978 3.16594 31.806584 -0.025495
2011-01-20 09:49:15 51°18.331 2°51.483 5.8979 3.167099 31.819475 0.113802
2011-01-20 09:49:20 51°18.346 2°51.47 5.9052 3.167099 31.819475 0.113802
2011-01-20 09:49:25 51°18.361 2°51.457 5.902 3.167205 31.822265 0.113802
2011-01-20 09:49:30 51°18.375 2°51.444 5.9064 3.16868 31.837864 0.113802
2011-01-20 09:49:34 51°18.387 2°51.434 5.9141 3.167942 31.828041 0.253098
2011-01-20 09:49:40 51°18.405 2°51.42 5.9158 3.169628 31.843554 0.113802
2011-01-20 09:49:45 51°18.42 2°51.407 5.9118 3.170787 31.852396 0.078977
2011-01-20 09:49:50 51°18.435 2°51.393 5.9157 3.170787 31.852396 0.078977
2011-01-20 09:49:55 51°18.449 2°51.379 5.9205 3.172262 31.864752 0.148626
2011-01-20 09:50:00 51°18.463 2°51.365 5.915 3.173948 31.87945 0.287922
2011-01-20 09:50:05 51°18.477 2°51.351 5.9206 3.174897 31.886754 0.253098
2011-01-20 09:50:10 51°18.492 2°51.337 5.9281 3.176583 31.902258 0.113802
2011-01-20 09:50:14 51°18.503 2°51.325 5.92 3.178585 31.921276 0.113802
2011-01-20 09:50:20 51°18.519 2°51.308 5.916 3.178585 31.921276 0.113802
2011-01-20 09:50:25 51°18.533 2°51.294 5.9115 3.179849 31.933713 0.218274
2011-01-20 09:50:30 51°18.548 2°51.28 5.9117 3.181008 31.944167 0.113802
2011-01-20 09:50:35 51°18.563 2°51.269 5.9062 3.181535 31.94759 0.18345
2011-01-20 09:50:40 51°18.577 2°51.256 5.9006 3.182273 31.955791 0.218274
2011-01-20 09:50:45 51°18.592 2°51.243 5.8983 3.183221 31.9639 0.218274
2011-01-20 09:50:50 51°18.607 2°51.23 5.8863 3.185118 31.984989 0.218274
2011-01-20 09:50:54 51°18.618 2°51.219 5.8793 3.185118 31.984989 0.218274
2011-01-20 09:51:00 51°18.636 2°51.203 5.8805 3.183853 31.970929 0.148626
2011-01-20 09:51:05 51°18.65 2°51.189 5.8765 3.185539 31.991301 0.253098
2011-01-20 09:51:10 51°18.663 2°51.175 5.8878 3.185961 31.997613 0.287922
2011-01-20 09:51:15 51°18.678 2°51.162 5.8729 3.185013 31.99113 0.18345
2011-01-20 09:51:20 51°18.692 2°51.149 5.8572 3.183432 31.979239 0.113802
2011-01-20 09:51:25 51°18.706 2°51.136 5.8497 3.183432 31.979239 0.113802
2011-01-20 09:51:30 51°18.721 2°51.122 5.8448 3.184591 31.99701 0.218274
2011-01-20 09:51:35 51°18.735 2°51.108 5.8342 3.182168 31.976551 0.253098
2011-01-20 09:51:40 51°18.75 2°51.094 5.8361 3.182905 31.989637 0.218274
2011-01-20 09:51:45 51°18.764 2°51.081 5.835 3.180271 31.962761 0.18345
2011-01-20 09:51:50 51°18.779 2°51.068 5.8351 3.180271 31.962761 0.18345
2011-01-20 09:51:55 51°18.794 2°51.055 5.8258 3.180587 31.970343 0.18345
2011-01-20 09:52:00 51°18.808 2°51.041 5.8163 3.180376 31.97369 0.287922
2011-01-20 09:52:05 51°18.823 2°51.029 5.8167 3.178585 31.961067 0.35757
2011-01-20 09:52:10 51°18.838 2°51.017 5.812 3.177005 31.949974 0.148626
2011-01-20 09:52:14 51°18.85 2°51.007 5.8065 3.174897 31.934637 0.287922
2011-01-20 09:52:20 51°18.868 2°50.993 5.7945 3.174897 31.934637 0.287922
2011-01-20 09:52:25 51°18.883 2°50.98 5.795 3.172579 31.913697 0.253098
2011-01-20 09:52:30 51°18.898 2°50.968 5.7943 3.172579 31.919385 0.287922
2011-01-20 09:52:35 51°18.913 2°50.955 5.7942 3.17142 31.910537 0.18345
2011-01-20 09:52:40 51°18.928 2°50.942 5.7957 3.169629 31.897895 0.148626
2011-01-20 09:52:45 51°18.942 2°50.928 5.7851 3.167627 31.881276 0.218274
2011-01-20 09:52:50 51°18.957 2°50.915 5.7824 3.167837 31.887686 0.218274
2011-01-20 09:52:54 51°18.969 2°50.904 5.7751 3.167837 31.887686 0.218274
2011-01-20 09:53:00 51°18.987 2°50.889 5.7709 3.166362 31.879371 0.148626
2011-01-20 09:53:05 51°19.002 2°50.876 5.7664 3.165098 31.870152 0.392394
2011-01-20 09:53:10 51°19.016 2°50.863 5.7631 3.165309 31.874939 0.218274
2011-01-20 09:53:14 51°19.028 2°50.853 5.7589 3.16573 31.882888 0.287922
2011-01-20 09:53:20 51°19.045 2°50.838 5.7561 3.16573 31.882888 0.287922
2011-01-20 09:53:25 51°19.059 2°50.826 5.7445 3.166362 31.891563 0.218274
2011-01-20 09:53:30 51°19.074 2°50.813 5.7438 3.166152 31.891653 0.18345
2011-01-20 09:53:35 51°19.088 2°50.799 5.7381 3.165625 31.891471 0.322746
2011-01-20 09:53:40 51°19.103 2°50.786 5.73 3.164993 31.888487 0.148626
2011-01-20 09:53:45 51°19.117 2°50.772 5.7311 3.162991 31.872663 0.18345
2011-01-20 09:53:50 51°19.132 2°50.759 5.7311 3.162991 31.872663 0.18345
2011-01-20 09:53:54 51°19.143 2°50.748 5.7277 3.161516 31.85946 0.148626
2011-01-20 09:54:00 51°19.161 2°50.732 5.7285 3.159408 31.842453 0.18345
2011-01-20 09:54:05 51°19.176 2°50.718 5.7316 3.157722 31.830144 0.253098
2011-01-20 09:54:10 51°19.19 2°50.706 5.7292 3.155826 31.814668 0.462042
2011-01-20 09:54:15 51°19.205 2°50.693 5.72 3.154667 31.806608 0.18345
2011-01-20 09:54:20 51°19.219 2°50.68 5.7197 3.153824 31.802886 0.113802
2011-01-20 09:54:25 51°19.234 2°50.668 5.7294 3.153824 31.802886 0.113802
2011-01-20 09:54:30 51°19.249 2°50.654 5.7191 3.152454 31.790846 0.462042
2011-01-20 09:54:34 51°19.261 2°50.645 5.7173 3.153086 31.80034 0.218274
2011-01-20 09:54:40 51°19.278 2°50.629 5.715 3.151927 31.789838 0.18345
2011-01-20 09:54:45 51°19.293 2°50.617 5.7203 3.152559 31.797708 0.253098
2011-01-20 09:54:50 51°19.309 2°50.605 5.7247 3.152559 31.797708 0.253098
2011-01-20 09:54:55 51°19.324 2°50.593 5.7307 3.152033 31.791826 0.148626
2011-01-20 09:55:00 51°19.339 2°50.582 5.7313 3.152033 31.795888 0.218274
2011-01-20 09:55:05 51°19.354 2°50.572 5.7304 3.151927 31.796337 0.35757
2011-01-20 09:55:10 51°19.37 2°50.562 5.7313 3.151822 31.797598 0.18345
2011-01-20 09:55:14 51°19.382 2°50.555 5.7377 3.151822 31.798411 0.18345
2011-01-20 09:55:20 51°19.401 2°50.542 5.7377 3.151822 31.798411 0.18345
2011-01-20 09:55:25 51°19.416 2°50.531 5.7456 3.152559 31.80746 0.253098
2011-01-20 09:55:30 51°19.43 2°50.52 5.7603 3.153086 31.811717 0.218274
2011-01-20 09:55:35 51°19.445 2°50.509 5.7703 3.15414 31.821044 0.148626
2011-01-20 09:55:40 51°19.46 2°50.498 5.7854 3.156353 31.843313 0.253098
2011-01-20 09:55:45 51°19.475 2°50.486 5.7983 3.158355 31.865671 0.218274
2011-01-20 09:55:50 51°19.49 2°50.475 5.8066 3.158355 31.865671 0.218274
2011-01-20 09:55:54 51°19.502 2°50.466 5.8184 3.160252 31.886039 0.148626
2011-01-20 09:56:00 51°19.52 2°50.451 5.8286 3.16278 31.911023 0.218274
2011-01-20 09:56:05 51°19.534 2°50.44 5.8359 3.166047 31.943429 0.253098
2011-01-20 09:56:10 51°19.549 2°50.429 5.8429 3.167944 31.955634 0.218274
2011-01-20 09:56:15 51°19.564 2°50.417 5.8445 3.173844 32.012545 0.253098
2011-01-20 09:56:20 51°19.579 2°50.405 5.8486 3.180167 32.070875 0.253098
2011-01-20 09:56:25 51°19.594 2°50.393 5.8531 3.180167 32.070875 0.253098
2011-01-20 09:56:30 51°19.61 2°50.381 5.8564 3.183539 32.096243 0.148626
2011-01-20 09:56:34 51°19.622 2°50.372 5.8594 3.191337 32.172639 0.218274
2011-01-20 09:56:40 51°19.639 2°50.357 5.8685 3.195657 32.209377 0.322746
2011-01-20 09:56:45 51°19.654 2°50.345 5.8741 3.200926 32.258327 0.287922
2011-01-20 09:56:50 51°19.669 2°50.333 5.8819 3.204719 32.293266 0.18345
2011-01-20 09:56:55 51°19.684 2°50.321 5.8815 3.204719 32.293266 0.18345
2011-01-20 09:57:00 51°19.699 2°50.309 5.8903 3.207354 32.316083 0.18345
2011-01-20 09:57:05 51°19.714 2°50.296 5.894 3.209356 32.333487 0.218274
2011-01-20 09:57:10 51°19.729 2°50.285 5.894 3.214203 32.381814 0.218274
2011-01-20 09:57:14 51°19.741 2°50.276 5.8934 3.216943 32.407441 0.218274
2011-01-20 09:57:20 51°19.759 2°50.261 5.8957 3.216943 32.407441 0.218274
2011-01-20 09:57:26 51°19.776 2°50.245 5.8987 3.21884 32.422006 0.253098
2011-01-20 09:57:30 51°19.788 2°50.236 5.9008 3.220421 32.43304 0.322746
2011-01-20 09:57:35 51°19.802 2°50.223 5.901 3.223161 32.457828 0.218274
2011-01-20 09:57:40 51°19.817 2°50.211 5.9069 3.225584 32.478258 0.18345
2011-01-20 09:57:45 51°19.832 2°50.198 5.9003 3.227271 32.493761 0.322746
2011-01-20 09:57:50 51°19.847 2°50.186 5.9039 3.230432 32.52572 0.148626
2011-01-20 09:57:54 51°19.859 2°50.176 5.9058 3.230432 32.52572 0.148626
2011-01-20 09:58:00 51°19.877 2°50.161 5.9059 3.231697 32.537345 0.218274
2011-01-20 09:58:05 51°19.892 2°50.148 5.9032 3.233172 32.552148 0.18345
2011-01-20 09:58:10 51°19.907 2°50.136 5.9047 3.234647 32.565294 0.113802
2011-01-20 09:58:15 51°19.922 2°50.124 5.907 3.235069 32.56834 0.253098
2011-01-20 09:58:20 51°19.937 2°50.11 5.9149 3.236228 32.578786 0.218274
2011-01-20 09:58:25 51°19.952 2°50.097 5.9083 3.236228 32.578786 0.218274
2011-01-20 09:58:30 51°19.967 2°50.085 5.9192 3.237493 32.592892 0.078977
2011-01-20 09:58:34 51°19.978 2°50.075 5.9091 3.237177 32.588537 0.148626
2011-01-20 09:58:40 51°19.997 2°50.061 5.916 3.239811 32.617927 0.253098
2011-01-20 09:58:45 51°20.011 2°50.048 5.9164 3.241076 32.631206 0.253098
2011-01-20 09:58:50 51°20.026 2°50.035 5.9184 3.241076 32.631206 0.253098
2011-01-20 09:58:55 51°20.041 2°50.023 5.9139 3.242235 32.641649 0.253098
2011-01-20 09:59:00 51°20.056 2°50.01 5.9237 3.243289 32.652576 0.253098
2011-01-20 09:59:05 51°20.071 2°49.997 5.9273 3.24371 32.653959 0.253098
2011-01-20 09:59:10 51°20.086 2°49.984 5.9245 3.244659 32.662879 0.322746
2011-01-20 09:59:14 51°20.098 2°49.974 5.9272 3.244554 32.660873 0.218274
2011-01-20 09:59:20 51°20.116 2°49.957 5.9217 3.244554 32.660873 0.218274
2011-01-20 09:59:25 51°20.13 2°49.944 5.9168 3.246661 32.683555 0.287922
2011-01-20 09:59:30 51°20.145 2°49.931 5.9225 3.248242 32.699529 0.253098
2011-01-20 09:59:35 51°20.159 2°49.918 5.9217 3.25035 32.722212 0.287922
2011-01-20 09:59:40 51°20.174 2°49.905 5.9213 3.251087 32.727116 0.18345
2011-01-20 09:59:45 51°20.189 2°49.892 5.9145 3.251931 32.734027 0.18345
2011-01-20 09:59:50 51°20.204 2°49.879 5.9173 3.253828 32.753525 0.253098
2011-01-20 09:59:55 51°20.218 2°49.866 5.9167 3.253828 32.753525 0.253098
2011-01-20 10:00:00 51°20.233 2°49.853 5.9095 3.254671 32.763764 0.287922
2011-01-20 10:00:05 51°20.247 2°49.841 5.9113 3.255619 32.776012 0.218274
2011-01-20 10:00:10 51°20.262 2°49.827 5.9088 3.255198 32.772141 0.18345
2011-01-20 10:00:15 51°20.277 2°49.814 5.9035 3.256673 32.787771 0.322746
2011-01-20 10:00:20 51°20.292 2°49.8 5.9021 3.256673 32.787771 0.322746
2011-01-20 10:00:25 51°20.307 2°49.787 5.9015 3.257305 32.79566 0.287922
2011-01-20 10:00:30 51°20.321 2°49.774 5.8916 3.258149 32.806736 0.218274
2011-01-20 10:00:34 51°20.333 2°49.763 5.8887 3.258149 32.80757 0.18345
2011-01-20 10:00:40 51°20.35 2°49.747 5.883 3.256252 32.789733 0.148626
2011-01-20 10:00:45 51°20.365 2°49.733 5.8875 3.256252 32.792233 0.218274
2011-01-20 10:00:50 51°20.38 2°49.72 5.8755 3.256252 32.792233 0.218274
2011-01-20 10:00:55 51°20.395 2°49.708 5.8799 3.256146 32.792724 0.113802
2011-01-20 10:01:00 51°20.41 2°49.696 5.8786 3.255619 32.78851 0.253098
2011-01-20 10:01:05 51°20.426 2°49.683 5.8731 3.254987 32.785619 0.18345
2011-01-20 10:01:10 51°20.44 2°49.672 5.8737 3.254671 32.783756 0.322746
2011-01-20 10:01:14 51°20.452 2°49.663 5.8665 3.253617 32.778659 0.218274
2011-01-20 10:01:20 51°20.47 2°49.649 5.8609 3.253617 32.778659 0.218274
2011-01-20 10:01:25 51°20.485 2°49.637 5.8665 3.251509 32.758459 0.148626
2011-01-20 10:01:30 51°20.5 2°49.623 5.8606 3.252036 32.768509 0.18345
2011-01-20 10:01:35 51°20.515 2°49.611 5.8545 3.251193 32.761595 0.218274
2011-01-20 10:01:40 51°20.53 2°49.598 5.8561 3.251299 32.765272 0.078977
2011-01-20 10:01:45 51°20.545 2°49.586 5.8559 3.250139 32.754825 0.253098
2011-01-20 10:01:50 51°20.56 2°49.574 5.8525 3.250034 32.756149 0.253098
2011-01-20 10:01:55 51°20.575 2°49.563 5.8535 3.250034 32.756149 0.253098
2011-01-20 10:02:00 51°20.591 2°49.55 5.8494 3.250772 32.770226 0.35757
2011-01-20 10:02:05 51°20.606 2°49.538 5.8506 3.248769 32.750357 0.18345
2011-01-20 10:02:10 51°20.621 2°49.526 5.8475 3.25014 32.767332 0.148626
2011-01-20 10:02:15 51°20.636 2°49.514 5.8491 3.250772 32.781072 0.35757
2011-01-20 10:02:20 51°20.652 2°49.502 5.8434 3.250772 32.781072 0.35757
2011-01-20 10:02:25 51°20.667 2°49.49 5.843 3.250772 32.781907 0.253098
2011-01-20 10:02:30 51°20.682 2°49.477 5.843 3.251088 32.786275 0.253098
2011-01-20 10:02:35 51°20.698 2°49.464 5.842 3.252669 32.805614 0.253098
2011-01-20 10:02:40 51°20.713 2°49.452 5.8412 3.252669 32.808121 0.218274
2011-01-20 10:02:45 51°20.728 2°49.441 5.8472 3.253196 32.814847 0.322746
2011-01-20 10:02:50 51°20.744 2°49.429 5.8417 3.253196 32.814847 0.322746
2011-01-20 10:02:55 51°20.759 2°49.419 5.8396 3.253512 32.818381 0.253098
2011-01-20 10:03:00 51°20.774 2°49.408 5.8394 3.253618 32.822903 0.287922
2011-01-20 10:03:05 51°20.789 2°49.397 5.842 3.254145 32.831303 0.18345
2011-01-20 10:03:10 51°20.804 2°49.385 5.8397 3.254461 32.834002 0.287922
2011-01-20 10:03:15 51°20.82 2°49.373 5.8474 3.254039 32.830125 0.253098
2011-01-20 10:03:20 51°20.835 2°49.36 5.8402 3.253934 32.831455 0.253098
2011-01-20 10:03:25 51°20.85 2°49.348 5.8438 3.253934 32.831455 0.253098
2011-01-20 10:03:30 51°20.865 2°49.335 5.8384 3.253407 32.825563 0.218274
2011-01-20 10:03:35 51°20.879 2°49.324 5.84 3.253934 32.831455 0.253098
2011-01-20 10:03:40 51°20.895 2°49.313 5.8427 3.25288 32.822179 0.148626
2011-01-20 10:03:45 51°20.91 2°49.302 5.8399 3.254355 32.837006 0.253098
2011-01-20 10:03:50 51°20.925 2°49.292 5.8367 3.258992 32.888869 0.18345
2011-01-20 10:03:55 51°20.94 2°49.281 5.8313 3.258992 32.888869 0.18345
2011-01-20 10:04:00 51°20.955 2°49.27 5.8317 3.261733 32.921197 0.287922
2011-01-20 10:04:05 51°20.971 2°49.259 5.8329 3.263735 32.941083 0.322746
2011-01-20 10:04:10 51°20.985 2°49.248 5.8298 3.266686 32.976619 0.287922
2011-01-20 10:04:14 51°20.997 2°49.238 5.8295 3.268794 33.000207 0.253098
2011-01-20 10:04:20 51°21.015 2°49.224 5.8393 3.268794 33.000207 0.253098
2011-01-20 10:04:25 51°21.029 2°49.212 5.8315 3.27048 33.019079 0.322746
2011-01-20 10:04:30 51°21.044 2°49.201 5.8279 3.270585 33.0211 0.287922
2011-01-20 10:04:35 51°21.059 2°49.189 5.8259 3.27438 33.067782 0.253098
2011-01-20 10:04:40 51°21.074 2°49.177 5.8242 3.274801 33.071659 0.35757
2011-01-20 10:04:45 51°21.089 2°49.166 5.8257 3.275434 33.081267 0.287922
2011-01-20 10:04:50 51°21.104 2°49.154 5.828 3.275434 33.081267 0.287922
2011-01-20 10:04:54 51°21.115 2°49.144 5.8253 3.275223 33.080593 0.253098
2011-01-20 10:05:00 51°21.133 2°49.13 5.8223 3.278912 33.121057 0.253098
2011-01-20 10:05:05 51°21.148 2°49.119 5.8207 3.278912 33.120213 0.253098
2011-01-20 10:05:10 51°21.163 2°49.108 5.8204 3.279333 33.128311 0.322746
2011-01-20 10:05:15 51°21.178 2°49.096 5.8296 3.281757 33.157153 0.322746
2011-01-20 10:05:20 51°21.193 2°49.084 5.8295 3.280598 33.145856 0.322746
2011-01-20 10:05:25 51°21.208 2°49.072 5.8287 3.280598 33.145856 0.322746
2011-01-20 10:05:30 51°21.223 2°49.06 5.8216 3.28123 33.15463 0.218274
2011-01-20 10:05:34 51°21.235 2°49.051 5.8219 3.282495 33.166263 0.253098
2011-01-20 10:05:40 51°21.253 2°49.038 5.8225 3.283654 33.181788 0.392394
2011-01-20 10:05:45 51°21.268 2°49.027 5.8159 3.282179 33.166948 0.322746
2011-01-20 10:05:50 51°21.284 2°49.015 5.8174 3.282917 33.176905 0.218274
2011-01-20 10:05:55 51°21.299 2°49.003 5.8172 3.282917 33.176905 0.218274
2011-01-20 10:06:00 51°21.314 2°48.99 5.8168 3.281546 33.159017 0.35757
2011-01-20 10:06:05 51°21.329 2°48.979 5.818 3.283444 33.180272 0.287922
2011-01-20 10:06:10 51°21.344 2°48.966 5.8201 3.281546 33.159863 0.253098
2011-01-20 10:06:14 51°21.356 2°48.956 5.8186 3.28513 33.199167 0.253098
2011-01-20 10:06:20 51°21.373 2°48.941 5.8232 3.28513 33.199167 0.253098
2011-01-20 10:06:25 51°21.388 2°48.928 5.826 3.284603 33.196647 0.35757
2011-01-20 10:06:30 51°21.403 2°48.916 5.8232 3.282179 33.171176 0.253098
2011-01-20 10:06:35 51°21.417 2°48.904 5.831 3.285341 33.208301 0.18345
2011-01-20 10:06:40 51°21.432 2°48.891 5.8211 3.28513 33.206785 0.287922
2011-01-20 10:06:45 51°21.447 2°48.88 5.8184 3.285551 33.210664 0.35757
2011-01-20 10:06:50 51°21.462 2°48.868 5.8191 3.285657 33.212692 0.253098
2011-01-20 10:06:55 51°21.477 2°48.856 5.8177 3.285657 33.212692 0.253098
2011-01-20 10:07:00 51°21.492 2°48.844 5.8186 3.2865 33.220448 0.322746
2011-01-20 10:07:05 51°21.508 2°48.832 5.8178 3.286711 33.220269 0.287922
2011-01-20 10:07:10 51°21.523 2°48.821 5.8233 3.287132 33.2233 0.392394
2011-01-20 10:07:15 51°21.538 2°48.809 5.8223 3.286922 33.220938 0.253098
2011-01-20 10:07:20 51°21.554 2°48.798 5.8257 3.288502 33.239503 0.322746
2011-01-20 10:07:25 51°21.569 2°48.786 5.8327 3.288502 33.239503 0.322746
2011-01-20 10:07:30 51°21.585 2°48.776 5.8335 3.288924 33.247619 0.322746
2011-01-20 10:07:34 51°21.597 2°48.766 5.8418 3.289029 33.249648 0.322746
2011-01-20 10:07:40 51°21.615 2°48.752 5.8445 3.288924 33.248466 0.287922
2011-01-20 10:07:45 51°21.63 2°48.741 5.8477 3.289346 33.253192 0.427218
2011-01-20 10:07:50 51°21.645 2°48.728 5.8512 3.289346 33.253192 0.427218
2011-01-20 10:07:55 51°21.659 2°48.716 5.8558 3.292402 33.286608 0.218274
2011-01-20 10:08:00 51°21.674 2°48.705 5.8538 3.293351 33.295545 0.322746
2011-01-20 10:08:05 51°21.689 2°48.693 5.8611 3.293667 33.295694 0.253098
2011-01-20 10:08:10 51°21.704 2°48.681 5.8525 3.295564 33.313564 0.218274
2011-01-20 10:08:14 51°21.716 2°48.672 5.8555 3.29841 33.341217 0.287922
2011-01-20 10:08:20 51°21.734 2°48.659 5.8556 3.29841 33.341217 0.287922
2011-01-20 10:08:25 51°21.75 2°48.648 5.85 3.300623 33.360928 0.253098
2011-01-20 10:08:30 51°21.765 2°48.638 5.8538 3.299147 33.339291 0.253098
2011-01-20 10:08:35 51°21.781 2°48.627 5.8533 3.30389 33.389046 0.35757
2011-01-20 10:08:40 51°21.796 2°48.616 5.8547 3.305893 33.408088 0.35757
2011-01-20 10:08:45 51°21.811 2°48.606 5.8572 3.304101 33.385455 0.322746
2011-01-20 10:08:50 51°21.827 2°48.595 5.8641 3.30779 33.427649 0.322746
2011-01-20 10:08:55 51°21.842 2°48.584 5.8668 3.30779 33.427649 0.322746
2011-01-20 10:09:00 51°21.858 2°48.573 5.8679 3.308844 33.438611 0.253098
2011-01-20 10:09:05 51°21.873 2°48.562 5.8708 3.310003 33.449903 0.287922
2011-01-20 10:09:10 51°21.888 2°48.551 5.8698 3.311479 33.469 0.218274
2011-01-20 10:09:15 51°21.903 2°48.54 5.873 3.308949 33.440644 0.253098
2011-01-20 10:09:20 51°21.918 2°48.528 5.8732 3.313165 33.487053 0.322746
2011-01-20 10:09:25 51°21.934 2°48.517 5.8796 3.313165 33.487053 0.322746
2011-01-20 10:09:30 51°21.949 2°48.505 5.8795 3.314535 33.499855 0.218274
2011-01-20 10:09:35 51°21.964 2°48.494 5.885 3.315694 33.508585 0.287922
2011-01-20 10:09:40 51°21.98 2°48.483 5.8823 3.316432 33.515149 0.322746
2011-01-20 10:09:45 51°21.995 2°48.471 5.8866 3.318329 33.533855 0.287922
2011-01-20 10:09:50 51°22.011 2°48.46 5.886 3.318329 33.533855 0.287922
2011-01-20 10:09:55 51°22.026 2°48.448 5.8922 3.316959 33.517642 0.287922
2011-01-20 10:10:00 51°22.041 2°48.436 5.8896 3.321597 33.567921 0.287922
2011-01-20 10:10:05 51°22.056 2°48.424 5.8898 3.320121 33.548816 0.322746
2011-01-20 10:10:10 51°22.071 2°48.413 5.8883 3.324232 33.591477 0.35757
2011-01-20 10:10:15 51°22.086 2°48.401 5.8918 3.322967 33.574734 0.287922
2011-01-20 10:10:20 51°22.102 2°48.389 5.8936 3.322967 33.574734 0.287922
2011-01-20 10:10:25 51°22.117 2°48.378 5.8907 3.325707 33.602886 0.253098
2011-01-20 10:10:30 51°22.132 2°48.366 5.8875 3.324021 33.582274 0.218274
2011-01-20 10:10:34 51°22.144 2°48.357 5.8879 3.327604 33.618164 0.287922
2011-01-20 10:10:40 51°22.162 2°48.343 5.8824 3.32771 33.617634 0.322746
2011-01-20 10:10:45 51°22.177 2°48.332 5.8824 3.326129 33.60077 0.322746
2011-01-20 10:10:50 51°22.192 2°48.32 5.8829 3.328553 33.627085 0.253098
2011-01-20 10:10:55 51°22.207 2°48.309 5.8808 3.328553 33.627085 0.253098
2011-01-20 10:11:00 51°22.222 2°48.298 5.8699 3.328342 33.622155 0.253098
2011-01-20 10:11:05 51°22.237 2°48.286 5.8709 3.331715 33.659958 0.287922
2011-01-20 10:11:10 51°22.252 2°48.275 5.8661 3.332242 33.667579 0.322746
2011-01-20 10:11:14 51°22.264 2°48.266 5.8647 3.332769 33.674344 0.287922
2011-01-20 10:11:20 51°22.283 2°48.252 5.8643 3.332769 33.674344 0.287922
2011-01-20 10:11:25 51°22.298 2°48.24 5.8576 3.332348 33.670474 0.322746
2011-01-20 10:11:30 51°22.312 2°48.227 5.8544 3.332558 33.675408 0.322746
2011-01-20 10:11:35 51°22.327 2°48.215 5.8538 3.332453 33.676798 0.392394
2011-01-20 10:11:40 51°22.342 2°48.203 5.8582 3.331399 33.67098 0.253098
2011-01-20 10:11:45 51°22.356 2°48.191 5.8529 3.332031 33.681501 0.322746
2011-01-20 10:11:50 51°22.371 2°48.179 5.8431 3.332031 33.681501 0.322746
2011-01-20 10:11:54 51°22.383 2°48.17 5.8434 3.330029 33.661613 0.253098
2011-01-20 10:12:00 51°22.4 2°48.155 5.8352 3.331083 33.674292 0.218274
2011-01-20 10:12:05 51°22.415 2°48.144 5.8336 3.329291 33.658481 0.253098
2011-01-20 10:12:10 51°22.43 2°48.132 5.8326 3.330345 33.673734 0.287922
2011-01-20 10:12:15 51°22.444 2°48.12 5.8358 3.327394 33.642343 0.392394
2011-01-20 10:12:20 51°22.459 2°48.11 5.8376 3.327394 33.642343 0.392394
2011-01-20 10:12:25 51°22.474 2°48.099 5.8297 3.329397 33.666523 0.253098
2011-01-20 10:12:30 51°22.489 2°48.088 5.8218 3.329186 33.665873 0.287922
2011-01-20 10:12:35 51°22.503 2°48.077 5.8203 3.32634 33.639088 0.287922
2011-01-20 10:12:40 51°22.518 2°48.065 5.8224 3.326551 33.646597 0.253098
2011-01-20 10:12:45 51°22.532 2°48.054 5.822 3.327816 33.664222 0.287922
2011-01-20 10:12:50 51°22.547 2°48.042 5.8229 3.327816 33.664222 0.287922
2011-01-20 10:12:55 51°22.561 2°48.031 5.8158 3.324548 33.631839 0.322746
2011-01-20 10:13:00 51°22.576 2°48.02 5.8094 3.3236 33.620337 0.218274
2011-01-20 10:13:05 51°22.591 2°48.007 5.81 3.325602 33.645384 0.322746
2011-01-20 10:13:10 51°22.605 2°47.996 5.8082 3.322862 33.620626 0.287922
2011-01-20 10:13:15 51°22.619 2°47.984 5.8059 3.324865 33.646537 0.322746
2011-01-20 10:13:20 51°22.634 2°47.972 5.8035 3.324865 33.646537 0.322746
2011-01-20 10:13:25 51°22.649 2°47.961 5.8025 3.324338 33.641478 0.35757
2011-01-20 10:13:30 51°22.663 2°47.949 5.8004 3.325075 33.651478 0.287922
2011-01-20 10:13:34 51°22.675 2°47.94 5.7943 3.322546 33.62565 0.322746
2011-01-20 10:13:40 51°22.692 2°47.926 5.7964 3.321597 33.619286 0.253098
2011-01-20 10:13:45 51°22.707 2°47.915 5.7991 3.324127 33.648549 0.253098
2011-01-20 10:13:50 51°22.722 2°47.903 5.7958 3.324127 33.648549 0.253098
2011-01-20 10:13:55 51°22.736 2°47.891 5.8041 3.32223 33.62896 0.287922
2011-01-20 10:14:00 51°22.75 2°47.878 5.7978 3.32223 33.63325 0.253098
2011-01-20 10:14:05 51°22.764 2°47.866 5.8034 3.323073 33.643578 0.287922
2011-01-20 10:14:10 51°22.778 2°47.855 5.7823 3.32086 33.620435 0.35757
2011-01-20 10:14:14 51°22.79 2°47.846 5.7812 3.322019 33.637747 0.35757
2011-01-20 10:14:20 51°22.808 2°47.833 5.7807 3.320965 33.62934 0.287922
2011-01-20 10:14:25 51°22.823 2°47.822 5.7793 3.320965 33.62934 0.287922
2011-01-20 10:14:30 51°22.837 2°47.81 5.7761 3.323916 33.662496 0.322746
2011-01-20 10:14:35 51°22.852 2°47.797 5.7844 3.322757 33.64947 0.287922
2011-01-20 10:14:40 51°22.866 2°47.785 5.7814 3.322757 33.647752 0.287922
2011-01-20 10:14:45 51°22.881 2°47.773 5.7801 3.323179 33.655924 0.287922
2011-01-20 10:14:50 51°22.896 2°47.761 5.7852 3.323179 33.655924 0.287922
2011-01-20 10:14:54 51°22.908 2°47.752 5.7797 3.324022 33.670554 0.322746
2011-01-20 10:15:00 51°22.926 2°47.739 5.7788 3.323389 33.670323 0.35757
2011-01-20 10:15:05 51°22.942 2°47.728 5.7798 3.324127 33.679475 0.322746
2011-01-20 10:15:10 51°22.957 2°47.716 5.7724 3.323811 33.678501 0.287922
2011-01-20 10:15:15 51°22.972 2°47.705 5.7649 3.324444 33.68561 0.253098
2011-01-20 10:15:20 51°22.987 2°47.693 5.7659 3.324444 33.68561 0.253098
2011-01-20 10:15:25 51°23.003 2°47.682 5.7651 3.325392 33.696274 0.253098
2011-01-20 10:15:30 51°23.018 2°47.669 5.7622 3.326446 33.708123 0.322746
2011-01-20 10:15:35 51°23.033 2°47.658 5.7626 3.326446 33.708984 0.322746
2011-01-20 10:15:40 51°23.048 2°47.646 5.7529 3.327922 33.726435 0.322746
2011-01-20 10:15:45 51°23.064 2°47.635 5.7493 3.327711 33.725787 0.35757
2011-01-20 10:15:50 51°23.079 2°47.622 5.7498 3.327711 33.725787 0.35757
2011-01-20 10:15:55 51°23.094 2°47.611 5.7414 3.328133 33.733974 0.253098
2011-01-20 10:16:00 51°23.109 2°47.599 5.7412 3.327816 33.733864 0.218274
2011-01-20 10:16:05 51°23.125 2°47.588 5.743 3.32729 33.730522 0.322746
2011-01-20 10:16:10 51°23.14 2°47.576 5.7372 3.328027 33.741406 0.322746
2011-01-20 10:16:14 51°23.152 2°47.567 5.7308 3.327711 33.740435 0.35757
2011-01-20 10:16:20 51°23.17 2°47.553 5.7293 3.323811 33.700874 0.322746
2011-01-20 10:16:25 51°23.186 2°47.543 5.7281 3.323811 33.700874 0.322746
2011-01-20 10:16:30 51°23.201 2°47.531 5.7264 3.326657 33.737198 0.322746
2011-01-20 10:16:35 51°23.216 2°47.52 5.734 3.32476 33.718438 0.35757
2011-01-20 10:16:40 51°23.231 2°47.508 5.7325 3.326025 33.737843 0.322746
2011-01-20 10:16:45 51°23.247 2°47.497 5.7275 3.325393 33.734175 0.322746
2011-01-20 10:16:50 51°23.262 2°47.485 5.7262 3.325393 33.734175 0.322746
2011-01-20 10:16:54 51°23.274 2°47.476 5.7215 3.324444 33.725223 0.253098
2011-01-20 10:17:00 51°23.292 2°47.462 5.7213 3.323074 33.71325 0.287922
2011-01-20 10:17:05 51°23.308 2°47.452 5.7164 3.323074 33.718423 0.392394
2011-01-20 10:17:10 51°23.323 2°47.441 5.7206 3.323601 33.725218 0.322746
2011-01-20 10:17:15 51°23.338 2°47.429 5.7132 3.322652 33.716264 0.322746
2011-01-20 10:17:20 51°23.354 2°47.418 5.7135 3.322652 33.716264 0.322746
2011-01-20 10:17:25 51°23.369 2°47.407 5.7104 3.322336 33.711842 0.322746
2011-01-20 10:17:30 51°23.384 2°47.396 5.7185 3.322231 33.713242 0.322746
2011-01-20 10:17:35 51°23.4 2°47.385 5.709 3.321071 33.702776 0.35757
2011-01-20 10:17:40 51°23.415 2°47.373 5.7017 3.321704 33.712483 0.35757
2011-01-20 10:17:45 51°23.43 2°47.361 5.7007 3.318647 33.680655 0.322746
2011-01-20 10:17:50 51°23.445 2°47.35 5.7047 3.319701 33.695108 0.322746
2011-01-20 10:17:55 51°23.46 2°47.338 5.6999 3.319701 33.695108 0.322746
2011-01-20 10:18:00 51°23.474 2°47.326 5.6995 3.32065 33.708377 0.322746
2011-01-20 10:18:05 51°23.49 2°47.314 5.6992 3.319912 33.70093 0.35757
2011-01-20 10:18:10 51°23.504 2°47.303 5.7002 3.319174 33.695209 0.392394
2011-01-20 10:18:15 51°23.519 2°47.291 5.7044 3.318647 33.690136 0.322746
2011-01-20 10:18:20 51°23.534 2°47.28 5.6945 3.319385 33.701895 0.392394
2011-01-20 10:18:25 51°23.548 2°47.268 5.6958 3.319385 33.701895 0.392394
2011-01-20 10:18:30 51°23.564 2°47.257 5.6921 3.319174 33.701245 0.35757
2011-01-20 10:18:34 51°23.576 2°47.248 5.6858 3.318542 33.694985 0.322746
2011-01-20 10:18:40 51°23.594 2°47.234 5.6865 3.318015 33.691636 0.287922
2011-01-20 10:18:45 51°23.609 2°47.222 5.6866 3.317804 33.689261 0.287922
2011-01-20 10:18:50 51°23.625 2°47.211 5.691 3.317804 33.689261 0.287922
2011-01-20 10:18:55 51°23.64 2°47.199 5.683 3.31812 33.694548 0.35757
2011-01-20 10:19:00 51°23.656 2°47.188 5.6829 3.317593 33.689474 0.35757
2011-01-20 10:19:05 51°23.672 2°47.177 5.6808 3.317593 33.691199 0.35757
2011-01-20 10:19:10 51°23.687 2°47.166 5.6787 3.317066 33.688712 0.392394
2011-01-20 10:19:14 51°23.699 2°47.156 5.6761 3.317066 33.6913 0.392394
2011-01-20 10:19:20 51°23.717 2°47.143 5.6815 3.317066 33.6913 0.392394
2011-01-20 10:19:25 51°23.733 2°47.132 5.6832 3.316223 33.683524 0.427218
2011-01-20 10:19:30 51°23.747 2°47.12 5.6825 3.316118 33.684925 0.322746
2011-01-20 10:19:35 51°23.763 2°47.109 5.6832 3.315802 33.681362 0.322746
2011-01-20 10:19:40 51°23.778 2°47.097 5.6774 3.316329 33.689888 0.322746
2011-01-20 10:19:45 51°23.793 2°47.086 5.6747 3.315275 33.680599 0.392394
2011-01-20 10:19:50 51°23.809 2°47.075 5.6717 3.314853 33.678435 0.35757
2011-01-20 10:19:55 51°23.824 2°47.063 5.668 3.314853 33.678435 0.35757
2011-01-20 10:20:00 51°23.839 2°47.051 5.6712 3.314959 33.679623 0.35757
2011-01-20 10:20:05 51°23.854 2°47.039 5.6644 3.314853 33.677573 0.392394
2011-01-20 10:20:10 51°23.869 2°47.027 5.6617 3.314959 33.677898 0.392394
2011-01-20 10:20:15 51°23.884 2°47.016 5.6582 3.314642 33.674334 0.35757
2011-01-20 10:20:20 51°23.899 2°47.004 5.6571 3.314642 33.676922 0.392394
2011-01-20 10:20:25 51°23.915 2°46.993 5.6606 3.314642 33.676922 0.392394
2011-01-20 10:20:30 51°23.93 2°46.981 5.6565 3.314537 33.678322 0.35757
2011-01-20 10:20:35 51°23.946 2°46.97 5.6528 3.313905 33.673783 0.322746
2011-01-20 10:20:40 51°23.96 2°46.958 5.663 3.313799 33.675183 0.35757
2011-01-20 10:20:45 51°23.975 2°46.946 5.6612 3.313167 33.671505 0.322746
2011-01-20 10:20:50 51°23.99 2°46.935 5.6587 3.313167 33.671505 0.322746
2011-01-20 10:20:55 51°24.006 2°46.923 5.6535 3.312535 33.66869 0.35757
2011-01-20 10:21:00 51°24.02 2°46.911 5.6571 3.312008 33.665337 0.322746
2011-01-20 10:21:05 51°24.036 2°46.899 5.6514 3.312218 33.66944 0.35757
2011-01-20 10:21:10 51°24.051 2°46.887 5.6484 3.311375 33.660795 0.35757
2011-01-20 10:21:15 51°24.066 2°46.875 5.6505 3.311059 33.658092 0.35757
2011-01-20 10:21:20 51°24.081 2°46.863 5.65 3.311059 33.658092 0.35757
2011-01-20 10:21:25 51°24.096 2°46.849 5.6484 3.310427 33.650099 0.322746
2011-01-20 10:21:30 51°24.111 2°46.837 5.6498 3.310743 33.652802 0.322746
2011-01-20 10:21:35 51°24.126 2°46.825 5.6514 3.310848 33.655716 0.35757
2011-01-20 10:21:40 51°24.141 2°46.813 5.6518 3.310638 33.654201 0.427218
2011-01-20 10:21:45 51°24.156 2°46.8 5.6525 3.310321 33.651499 0.35757
2011-01-20 10:21:50 51°24.17 2°46.788 5.6462 3.309584 33.64663 0.35757
2011-01-20 10:21:55 51°24.185 2°46.776 5.6473 3.309584 33.64663 0.35757
2011-01-20 10:22:00 51°24.2 2°46.763 5.6466 3.310216 33.655487 0.392394
2011-01-20 10:22:05 51°24.215 2°46.751 5.647 3.309794 33.651595 0.35757
2011-01-20 10:22:10 51°24.23 2°46.739 5.6458 3.310005 33.652247 0.35757
2011-01-20 10:22:15 51°24.245 2°46.727 5.6513 3.310427 33.656138 0.35757
2011-01-20 10:22:20 51°24.26 2°46.715 5.6459 3.310427 33.656138 0.35757
2011-01-20 10:22:25 51°24.275 2°46.703 5.6442 3.309162 33.644463 0.392394
2011-01-20 10:22:30 51°24.291 2°46.691 5.6486 3.310321 33.658401 0.35757
2011-01-20 10:22:35 51°24.306 2°46.68 5.6453 3.309162 33.646188 0.322746
2011-01-20 10:22:41 51°24.323 2°46.667 5.6514 3.3099 33.655372 0.35757
2011-01-20 10:22:46 51°24.338 2°46.656 5.6514 3.310532 33.662505 0.392394
2011-01-20 10:22:50 51°24.35 2°46.647 5.6541 3.310532 33.662505 0.392394
2011-01-20 10:22:55 51°24.365 2°46.637 5.6557 3.309794 33.653321 0.35757
2011-01-20 10:23:00 51°24.38 2°46.626 5.6589 3.309794 33.653321 0.35757
2011-01-20 10:23:05 51°24.395 2°46.615 5.6624 3.310532 33.664232 0.35757
2011-01-20 10:23:10 51°24.41 2°46.604 5.6664 3.311165 33.669638 0.322746
2011-01-20 10:23:15 51°24.425 2°46.593 5.6689 3.311165 33.670502 0.35757
2011-01-20 10:23:20 51°24.44 2°46.581 5.6711 3.312008 33.677422 0.322746
2011-01-20 10:23:25 51°24.456 2°46.57 5.6743 3.312008 33.677422 0.322746
2011-01-20 10:23:30 51°24.471 2°46.558 5.6756 3.31264 33.683691 0.35757
2011-01-20 10:23:35 51°24.486 2°46.547 5.6797 3.313378 33.690286 0.322746
2011-01-20 10:23:40 51°24.501 2°46.535 5.6794 3.315064 33.705851 0.392394
2011-01-20 10:23:45 51°24.516 2°46.523 5.6834 3.31654 33.72163 0.322746
2011-01-20 10:23:50 51°24.532 2°46.512 5.6853 3.318015 33.734815 0.35757
2011-01-20 10:23:55 51°24.547 2°46.5 5.6848 3.318015 33.734815 0.35757
2011-01-20 10:24:00 51°24.562 2°46.489 5.6913 3.31928 33.744756 0.322746
2011-01-20 10:24:05 51°24.577 2°46.478 5.6927 3.321283 33.763881 0.253098
2011-01-20 10:24:10 51°24.593 2°46.467 5.6914 3.322021 33.769606 0.322746
2011-01-20 10:24:15 51°24.609 2°46.456 5.6962 3.323391 33.782462 0.392394
2011-01-20 10:24:20 51°24.624 2°46.444 5.6992 3.323391 33.782462 0.392394
2011-01-20 10:24:25 51°24.639 2°46.433 5.7025 3.323601 33.782243 0.287922
2011-01-20 10:24:30 51°24.654 2°46.421 5.7096 3.326131 33.807306 0.35757
2011-01-20 10:24:35 51°24.669 2°46.409 5.7176 3.327396 33.819836 0.35757
2011-01-20 10:24:40 51°24.684 2°46.399 5.7151 3.327501 33.818426 0.35757
2011-01-20 10:24:45 51°24.7 2°46.387 5.7136 3.328871 33.830411 0.322746
2011-01-20 10:24:50 51°24.715 2°46.376 5.7167 3.328871 33.830411 0.322746
2011-01-20 10:24:55 51°24.73 2°46.364 5.7194 3.328344 33.823602 0.35757
2011-01-20 10:25:00 51°24.745 2°46.353 5.7228 3.330874 33.847791 0.427218
2011-01-20 10:25:05 51°24.76 2°46.341 5.7284 3.332033 33.857396 0.35757
2011-01-20 10:25:10 51°24.775 2°46.33 5.7302 3.332877 33.863435 0.35757
2011-01-20 10:25:14 51°24.787 2°46.321 5.7265 3.33372 33.866005 0.322746
2011-01-20 10:25:20 51°24.805 2°46.308 5.7296 3.33372 33.866005 0.322746
2011-01-20 10:25:25 51°24.821 2°46.296 5.7307 3.334774 33.876152 0.35757
2011-01-20 10:25:30 51°24.836 2°46.285 5.7266 3.335933 33.887486 0.35757
2011-01-20 10:25:35 51°24.851 2°46.274 5.7271 3.336355 33.888769 0.392394
2011-01-20 10:25:40 51°24.866 2°46.263 5.7303 3.337303 33.896859 0.35757
2011-01-20 10:25:45 51°24.881 2°46.251 5.7269 3.337409 33.894577 0.35757
2011-01-20 10:25:50 51°24.897 2°46.241 5.7258 3.337409 33.894577 0.35757
2011-01-20 10:25:54 51°24.909 2°46.231 5.7335 3.336882 33.886037 0.35757
2011-01-20 10:26:00 51°24.927 2°46.218 5.7253 3.338463 33.902119 0.35757
2011-01-20 10:26:05 51°24.942 2°46.207 5.7303 3.339095 33.908378 0.35757
2011-01-20 10:26:10 51°24.957 2°46.196 5.7284 3.339517 33.913129 0.35757
2011-01-20 10:26:15 51°24.973 2°46.185 5.7252 3.339517 33.912261 0.35757
2011-01-20 10:26:20 51°24.988 2°46.174 5.7253 3.339517 33.912261 0.35757
2011-01-20 10:26:25 51°25.003 2°46.162 5.7224 3.338357 33.899196 0.35757
2011-01-20 10:26:30 51°25.017 2°46.151 5.723 3.338463 33.902119 0.322746
2011-01-20 10:26:34 51°25.029 2°46.141 5.7228 3.339727 33.914636 0.322746
2011-01-20 10:26:40 51°25.047 2°46.127 5.7203 3.339727 33.914636 0.322746
2011-01-20 10:26:45 51°25.062 2°46.117 5.7224 3.339517 33.912261 0.35757
2011-01-20 10:26:50 51°25.078 2°46.106 5.7244 3.339517 33.912261 0.35757
2011-01-20 10:26:55 51°25.093 2°46.097 5.7251 3.339095 33.908378 0.35757
2011-01-20 10:27:00 51°25.109 2°46.089 5.7232 3.339938 33.918747 0.35757
2011-01-20 10:27:05 51°25.125 2°46.081 5.7251 3.340044 33.920803 0.322746
2011-01-20 10:27:10 51°25.141 2°46.073 5.7236 3.339095 33.908378 0.287922
2011-01-20 10:27:14 51°25.153 2°46.068 5.7202 3.340254 33.924047 0.35757
2011-01-20 10:27:20 51°25.172 2°46.06 5.7141 3.34036 33.924367 0.287922
2011-01-20 10:27:25 51°25.188 2°46.054 5.7138 3.34036 33.924367 0.287922
2011-01-20 10:27:30 51°25.204 2°46.048 5.7127 3.339727 33.91724 0.392394
2011-01-20 10:27:35 51°25.22 2°46.041 5.713 3.340465 33.925555 0.287922
2011-01-20 10:27:40 51°25.236 2°46.035 5.7124 3.34036 33.924367 0.35757
2011-01-20 10:27:45 51°25.252 2°46.029 5.7119 3.340676 33.92793 0.35757
2011-01-20 10:27:50 51°25.268 2°46.022 5.714 3.340676 33.92793 0.35757
2011-01-20 10:27:54 51°25.281 2°46.017 5.7156 3.340781 33.929118 0.322746
2011-01-20 10:28:00 51°25.301 2°46.01 5.7098 3.340571 33.930215 0.392394
2011-01-20 10:28:05 51°25.317 2°46.003 5.7073 3.341203 33.940817 0.287922
2011-01-20 10:28:10 51°25.333 2°45.998 5.708 3.341098 33.942234 0.287922
2011-01-20 10:28:15 51°25.349 2°45.991 5.7114 3.341309 33.944611 0.287922
2011-01-20 10:28:20 51°25.366 2°45.986 5.7091 3.341309 33.944611 0.287922
2011-01-20 10:28:25 51°25.382 2°45.98 5.7132 3.341414 33.948406 0.35757
2011-01-20 10:28:30 51°25.398 2°45.974 5.7111 3.341625 33.950782 0.322746
2011-01-20 10:28:35 51°25.413 2°45.968 5.7167 3.341098 33.94484 0.253098
2011-01-20 10:28:40 51°25.429 2°45.962 5.7195 3.341309 33.947217 0.287922
2011-01-20 10:28:45 51°25.444 2°45.957 5.7217 3.341414 33.949274 0.253098
2011-01-20 10:28:50 51°25.461 2°45.952 5.721 3.341836 33.955766 0.253098
2011-01-20 10:28:55 51°25.476 2°45.948 5.7173 3.341836 33.955766 0.253098
2011-01-20 10:29:00 51°25.493 2°45.946 5.7251 3.342046 33.957274 0.18345
2011-01-20 10:29:05 51°25.509 2°45.948 5.726 3.341309 33.947217 0.287922
2011-01-20 10:29:10 51°25.525 2°45.949 5.721 3.342468 33.961159 0.35757
2011-01-20 10:29:15 51°25.541 2°45.952 5.7243 3.342573 33.95887 0.148626
2011-01-20 10:29:20 51°25.556 2°45.955 5.7232 3.342573 33.95887 0.148626
2011-01-20 10:29:25 51°25.572 2°45.96 5.7261 3.343417 33.96577 0.287922
2011-01-20 10:29:30 51°25.588 2°45.965 5.7373 3.343838 33.967046 0.287922
2011-01-20 10:29:34 51°25.599 2°45.972 5.7295 3.344471 33.973306 0.253098
2011-01-20 10:29:40 51°25.617 2°45.983 5.7344 3.344787 33.976871 0.35757
2011-01-20 10:29:45 51°25.632 2°45.994 5.728 3.344998 33.977508 0.253098
2011-01-20 10:29:50 51°25.645 2°46.008 5.7281 3.344998 33.977508 0.253098
2011-01-20 10:29:55 51°25.657 2°46.024 5.7271 3.34563 33.983768 0.322746
2011-01-20 10:30:00 51°25.668 2°46.043 5.7254 3.345419 33.982261 0.322746
2011-01-20 10:30:05 51°25.679 2°46.061 5.7228 3.346789 33.994229 0.322746
2011-01-20 10:30:10 51°25.689 2°46.082 5.7228 3.346262 33.98568 0.322746
2011-01-20 10:30:14 51°25.697 2°46.098 5.7255 3.347527 33.998197 0.35757
2011-01-20 10:30:20 51°25.708 2°46.122 5.7251 3.347527 33.998197 0.35757
2011-01-20 10:30:25 51°25.717 2°46.143 5.7239 3.347738 34.001443 0.253098
2011-01-20 10:30:30 51°25.726 2°46.165 5.717 3.348054 34.003268 0.287922
2011-01-20 10:30:35 51°25.735 2°46.187 5.7183 3.347633 34.000255 0.322746
2011-01-20 10:30:40 51°25.744 2°46.209 5.7235 3.34816 34.008805 0.253098
2011-01-20 10:30:45 51°25.752 2°46.232 5.7195 3.347844 34.006981 0.322746
2011-01-20 10:30:50 51°25.761 2°46.254 5.7213 3.348054 34.011968 0.287922
2011-01-20 10:30:54 51°25.768 2°46.273 5.7126 3.348054 34.011968 0.287922
2011-01-20 10:31:00 51°25.779 2°46.301 5.7118 3.348265 34.014344 0.253098
2011-01-20 10:31:05 51°25.787 2°46.323 5.7129 3.34816 34.014026 0.218274
2011-01-20 10:31:10 51°25.796 2°46.346 5.7174 3.347633 34.011565 0.253098
2011-01-20 10:31:15 51°25.805 2°46.369 5.714 3.347949 34.016872 0.322746
2011-01-20 10:31:20 51°25.813 2°46.391 5.7126 3.347949 34.016872 0.322746
2011-01-20 10:31:25 51°25.822 2°46.414 5.7119 3.347 34.006175 0.253098
2011-01-20 10:31:30 51°25.831 2°46.436 5.7122 3.347527 34.012988 0.253098
2011-01-20 10:31:35 51°25.84 2°46.458 5.7141 3.347106 34.009104 0.253098
2011-01-20 10:31:40 51°25.849 2°46.48 5.7086 3.34816 34.024473 0.287922
2011-01-20 10:31:45 51°25.858 2°46.502 5.7071 3.347317 34.015834 0.253098
2011-01-20 10:31:50 51°25.868 2°46.525 5.7068 3.347317 34.015834 0.253098
2011-01-20 10:31:54 51°25.875 2°46.543 5.7096 3.347211 34.014645 0.322746
2011-01-20 10:32:00 51°25.885 2°46.57 5.7037 3.347106 34.015198 0.287922
2011-01-20 10:32:05 51°25.895 2°46.593 5.7087 3.346895 34.013691 0.253098
2011-01-20 10:32:10 51°25.903 2°46.616 5.708 3.347001 34.015751 0.287922
2011-01-20 10:32:14 51°25.91 2°46.634 5.6999 3.347106 34.016939 0.218274
2011-01-20 10:32:20 51°25.921 2°46.662 5.6945 3.346895 34.016303 0.287922
2011-01-20 10:32:25 51°25.93 2°46.685 5.7003 3.346895 34.016303 0.287922
2011-01-20 10:32:30 51°25.938 2°46.708 5.7059 3.346368 34.01123 0.253098
2011-01-20 10:32:35 51°25.947 2°46.73 5.7007 3.346474 34.013289 0.253098
2011-01-20 10:32:40 51°25.956 2°46.753 5.6982 3.346474 34.015031 0.218274
2011-01-20 10:32:45 51°25.965 2°46.775 5.6973 3.346263 34.012653 0.18345
2011-01-20 10:32:50 51°25.974 2°46.797 5.6944 3.346263 34.012653 0.18345
2011-01-20 10:32:54 51°25.981 2°46.815 5.6949 3.345947 34.009086 0.253098
2011-01-20 10:33:00 51°25.991 2°46.843 5.6912 3.34542 34.007495 0.218274
2011-01-20 10:33:05 51°26 2°46.866 5.6914 3.345103 34.005669 0.287922
2011-01-20 10:33:10 51°26.009 2°46.888 5.6902 3.345209 34.006858 0.253098
2011-01-20 10:33:15 51°26.018 2°46.91 5.6937 3.345314 34.008047 0.253098
2011-01-20 10:33:20 51°26.027 2°46.933 5.6891 3.345314 34.008047 0.253098
2011-01-20 10:33:25 51°26.036 2°46.955 5.6893 3.344787 34.001231 0.218274
2011-01-20 10:33:30 51°26.044 2°46.978 5.6917 3.344893 34.005903 0.253098
2011-01-20 10:33:34 51°26.052 2°46.996 5.6863 3.344155 33.99932 0.218274
2011-01-20 10:33:40 51°26.062 2°47.024 5.6884 3.343417 33.994478 0.253098
2011-01-20 10:33:45 51°26.071 2°47.047 5.6834 3.343417 33.994478 0.253098
2011-01-20 10:33:50 51°26.079 2°47.07 5.6905 3.343417 33.994478 0.253098
2011-01-20 10:33:55 51°26.088 2°47.092 5.6909 3.343101 33.992652 0.18345
2011-01-20 10:34:00 51°26.097 2°47.115 5.6864 3.342785 33.989084 0.18345
2011-01-20 10:34:05 51°26.105 2°47.138 5.6844 3.342468 33.985516 0.18345
2011-01-20 10:34:10 51°26.113 2°47.16 5.6819 3.342363 33.984326 0.218274
2011-01-20 10:34:14 51°26.119 2°47.179 5.681 3.342152 33.982818 0.18345
2011-01-20 10:34:20 51°26.129 2°47.206 5.6868 3.341414 33.977974 0.18345
2011-01-20 10:34:25 51°26.137 2°47.229 5.6864 3.341414 33.977974 0.18345
2011-01-20 10:34:30 51°26.145 2°47.252 5.6871 3.341098 33.973536 0.253098
2011-01-20 10:34:35 51°26.153 2°47.275 5.6906 3.341414 33.977104 0.218274
2011-01-20 10:34:40 51°26.161 2°47.298 5.6844 3.340044 33.964253 0.218274
2011-01-20 10:34:45 51°26.17 2°47.321 5.6838 3.340887 33.973768 0.253098
2011-01-20 10:34:50 51°26.178 2°47.344 5.6804 3.340887 33.973768 0.253098
2011-01-20 10:34:54 51°26.185 2°47.362 5.6842 3.340677 33.97313 0.148626
2011-01-20 10:35:00 51°26.195 2°47.39 5.6801 3.339623 33.960365 0.218274
2011-01-20 10:35:05 51°26.204 2°47.412 5.6844 3.340571 33.9702 0.287922
2011-01-20 10:35:10 51°26.213 2°47.435 5.6828 3.340044 33.963383 0.18345
2011-01-20 10:35:15 51°26.222 2°47.458 5.6822 3.339939 33.961323 0.253098
2011-01-20 10:35:20 51°26.231 2°47.48 5.679 3.339939 33.961323 0.253098
2011-01-20 10:35:25 51°26.24 2°47.503 5.6795 3.339517 33.958306 0.18345
2011-01-20 10:35:30 51°26.249 2°47.526 5.6788 3.339517 33.961786 0.253098
2011-01-20 10:35:35 51°26.257 2°47.549 5.6806 3.33899 33.955839 0.287922
2011-01-20 10:35:40 51°26.266 2°47.572 5.6837 3.339096 33.957899 0.218274
2011-01-20 10:35:45 51°26.274 2°47.595 5.683 3.338779 33.9552 0.218274
2011-01-20 10:35:50 51°26.283 2°47.618 5.6779 3.338779 33.9552 0.218274
2011-01-20 10:35:55 51°26.292 2°47.642 5.6815 3.338463 33.949892 0.253098
2011-01-20 10:36:00 51°26.3 2°47.665 5.6858 3.337936 33.944814 0.253098
2011-01-20 10:36:05 51°26.309 2°47.688 5.6797 3.338042 33.946004 0.287922
2011-01-20 10:36:10 51°26.318 2°47.711 5.677 3.337304 33.937678 0.218274
2011-01-20 10:36:14 51°26.324 2°47.729 5.6831 3.337725 33.944175 0.253098
2011-01-20 10:36:20 51°26.335 2°47.756 5.6823 3.337725 33.944175 0.253098
2011-01-20 10:36:25 51°26.342 2°47.779 5.6805 3.337725 33.942436 0.18345
2011-01-20 10:36:30 51°26.351 2°47.801 5.68 3.337515 33.940057 0.253098
2011-01-20 10:36:35 51°26.359 2°47.824 5.6751 3.336566 33.929352 0.148626
2011-01-20 10:36:40 51°26.368 2°47.846 5.6764 3.337831 33.944495 0.218274
2011-01-20 10:36:45 51°26.377 2°47.869 5.6759 3.337409 33.940607 0.253098
2011-01-20 10:36:50 51°26.385 2°47.892 5.6861 3.337409 33.940607 0.253098
2011-01-20 10:36:54 51°26.392 2°47.91 5.6751 3.337304 33.936808 0.253098
2011-01-20 10:37:00 51°26.403 2°47.937 5.6713 3.336882 33.932051 0.18345
2011-01-20 10:37:05 51°26.412 2°47.96 5.6784 3.336988 33.934979 0.287922
2011-01-20 10:37:10 51°26.42 2°47.983 5.6761 3.336777 33.93347 0.253098
2011-01-20 10:37:15 51°26.43 2°48.005 5.674 3.33625 33.926654 0.113802
2011-01-20 10:37:20 51°26.438 2°48.028 5.6763 3.33625 33.926654 0.113802
2011-01-20 10:37:25 51°26.447 2°48.052 5.674 3.33625 33.930131 0.218274
2011-01-20 10:37:30 51°26.454 2°48.074 5.6785 3.336039 33.926014 0.218274
2011-01-20 10:37:34 51°26.461 2°48.092 5.6727 3.336039 33.926014 0.253098
2011-01-20 10:37:40 51°26.471 2°48.12 5.6725 3.335828 33.927982 0.218274
2011-01-20 10:37:45 51°26.479 2°48.141 5.6718 3.335617 33.923864 0.148626
2011-01-20 10:37:50 51°26.488 2°48.164 5.6712 3.33509 33.918786 0.218274
2011-01-20 10:37:55 51°26.496 2°48.187 5.675 3.33509 33.918786 0.218274
2011-01-20 10:38:00 51°26.504 2°48.21 5.6726 3.334036 33.906891 0.287922
2011-01-20 10:38:05 51°26.513 2°48.233 5.6717 3.333931 33.905702 0.253098
2011-01-20 10:38:10 51°26.521 2°48.256 5.6689 3.334774 33.915217 0.113802
2011-01-20 10:38:14 51°26.528 2°48.274 5.6683 3.334774 33.916956 0.218274
2011-01-20 10:38:20 51°26.538 2°48.302 5.6684 3.334774 33.916956 0.218274
2011-01-20 10:38:25 51°26.546 2°48.324 5.6695 3.333193 33.899982 0.218274
2011-01-20 10:38:30 51°26.554 2°48.347 5.6687 3.333299 33.90291 0.148626
2011-01-20 10:38:35 51°26.563 2°48.369 5.6725 3.334036 33.910368 0.218274
2011-01-20 10:38:40 51°26.571 2°48.393 5.6677 3.333299 33.902041 0.218274
2011-01-20 10:38:45 51°26.579 2°48.415 5.664 3.333088 33.899662 0.113802
2011-01-20 10:38:50 51°26.587 2°48.438 5.6675 3.333088 33.899662 0.113802
2011-01-20 10:38:54 51°26.594 2°48.456 5.664 3.332245 33.891883 0.148626
2011-01-20 10:39:00 51°26.604 2°48.484 5.6634 3.332561 33.896321 0.078977
2011-01-20 10:39:05 51°26.613 2°48.506 5.6646 3.332245 33.89449 0.218274
2011-01-20 10:39:10 51°26.622 2°48.529 5.665 3.332034 33.891242 0.18345
2011-01-20 10:39:15 51°26.631 2°48.551 5.6626 3.332245 33.893621 0.113802
2011-01-20 10:39:20 51°26.64 2°48.573 5.6619 3.331718 33.890279 0.078977
2011-01-20 10:39:25 51°26.649 2°48.596 5.6639 3.331718 33.890279 0.078977
2011-01-20 10:39:30 51°26.658 2°48.618 5.6627 3.331191 33.8852 0.218274
2011-01-20 10:39:34 51°26.665 2°48.636 5.6636 3.33098 33.882821 0.253098